Time,TemperatureF,DewpointF,PressureIn,WindDirection,WindDirectionDegrees,WindSpeedMPH,WindSpeedGustMPH,Humidity,HourlyPrecipIn,Conditions,Clouds,dailyrainin,SoftwareType,DateUTC
2013-10-29 00:00:00,51.1,47.3,30.27,NNE,15,2.0,3.0,87,0.00,,,0.00,meteohub,2013-10-29 04:00:00,
2013-10-29 00:01:00,51.1,47.3,30.27,NNE,15,2.0,4.0,87,0.00,,,0.00,meteohub,2013-10-29 04:01:00,
2013-10-29 00:02:00,51.1,47.3,30.27,NNE,15,0.0,4.0,87,0.00,,,0.00,meteohub,2013-10-29 04:02:00,
2013-10-29 00:06:00,51.1,47.3,30.27,NNE,15,3.0,4.0,87,0.00,,,0.00,meteohub,2013-10-29 04:06:00,
2013-10-29 00:07:00,51.1,47.3,30.27,NNE,15,2.0,4.0,87,0.00,,,0.00,meteohub,2013-10-29 04:07:00,
2013-10-29 00:08:00,51.1,47.3,30.27,NNE,15,1.0,4.0,87,0.00,,,0.00,meteohub,2013-10-29 04:08:00,
2013-10-29 00:11:00,51.1,47.3,30.27,NNE,17,3.0,4.0,87,0.00,,,0.00,meteohub,2013-10-29 04:11:00,
2013-10-29 00:12:00,50.9,47.1,30.27,North,11,2.0,4.0,87,0.00,,,0.00,meteohub,2013-10-29 04:12:00,
2013-10-29 00:14:00,50.7,46.9,30.27,NNW,332,3.0,4.0,87,0.00,,,0.00,meteohub,2013-10-29 04:14:00,
2013-10-29 00:16:00,50.7,46.9,30.27,NE,34,0.0,5.0,87,0.00,,,0.00,meteohub,2013-10-29 04:16:00,
2013-10-29 00:17:00,50.7,46.9,30.27,West,267,0.0,5.0,87,0.00,,,0.00,meteohub,2013-10-29 04:17:00,
2013-10-29 00:19:00,50.5,46.6,30.27,North,9,4.0,5.0,86,0.00,,,0.00,meteohub,2013-10-29 04:19:00,
2013-10-29 00:20:00,50.5,46.6,30.27,NNE,19,2.0,5.0,86,0.00,,,0.00,meteohub,2013-10-29 04:20:00,
2013-10-29 00:21:00,50.5,46.6,30.27,North,5,4.0,5.0,86,0.00,,,0.00,meteohub,2013-10-29 04:21:00,
2013-10-29 00:22:00,50.4,46.4,30.27,North,9,3.0,5.0,86,0.00,,,0.00,meteohub,2013-10-29 04:22:00,
2013-10-29 00:23:00,50.4,46.4,30.27,NNE,19,4.0,5.0,86,0.00,,,0.00,meteohub,2013-10-29 04:23:00,
2013-10-29 00:24:00,50.4,46.4,30.27,NNE,14,4.0,5.0,86,0.00,,,0.00,meteohub,2013-10-29 04:24:00,
2013-10-29 00:26:00,50.4,46.4,30.27,North,5,2.0,5.0,86,0.00,,,0.00,meteohub,2013-10-29 04:26:00,
2013-10-29 00:27:00,50.4,46.4,30.27,NNE,17,3.0,5.0,86,0.00,,,0.00,meteohub,2013-10-29 04:27:00,
2013-10-29 00:28:00,50.4,46.0,30.27,NNE,24,3.0,5.0,85,0.00,,,0.00,meteohub,2013-10-29 04:28:00,
2013-10-29 00:29:00,50.2,45.9,30.27,NNE,16,2.0,5.0,85,0.00,,,0.00,meteohub,2013-10-29 04:29:00,
2013-10-29 00:30:00,50.2,45.9,30.27,North,0,3.0,5.0,85,0.00,,,0.00,meteohub,2013-10-29 04:30:00,
2013-10-29 00:31:00,50.2,45.9,30.27,North,0,3.0,7.0,85,0.00,,,0.00,meteohub,2013-10-29 04:31:00,
2013-10-29 00:32:00,50.2,45.9,30.27,NE,41,3.0,7.0,85,0.00,,,0.00,meteohub,2013-10-29 04:32:00,
2013-10-29 00:33:00,50.2,45.9,30.27,NNE,17,3.0,7.0,85,0.00,,,0.00,meteohub,2013-10-29 04:33:00,
2013-10-29 00:35:00,50.2,45.9,30.27,NNE,17,3.0,7.0,85,0.00,,,0.00,meteohub,2013-10-29 04:35:00,
2013-10-29 00:36:00,50.2,45.9,30.27,North,355,4.0,7.0,85,0.00,,,0.00,meteohub,2013-10-29 04:36:00,
2013-10-29 00:37:00,50.2,45.9,30.27,NE,38,3.0,7.0,85,0.00,,,0.00,meteohub,2013-10-29 04:37:00,
2013-10-29 00:39:00,50.2,45.9,30.27,NNW,339,3.0,7.0,85,0.00,,,0.00,meteohub,2013-10-29 04:39:00,
2013-10-29 00:40:00,50.2,45.5,30.27,North,10,3.0,7.0,84,0.00,,,0.00,meteohub,2013-10-29 04:40:00,
2013-10-29 00:41:00,50.2,45.5,30.27,NNE,24,6.0,8.0,84,0.00,,,0.00,meteohub,2013-10-29 04:41:00,
2013-10-29 00:42:00,50.2,45.5,30.27,NNE,18,3.0,8.0,84,0.00,,,0.00,meteohub,2013-10-29 04:42:00,
2013-10-29 00:43:00,50.2,45.5,30.27,North,0,3.0,8.0,84,0.00,,,0.00,meteohub,2013-10-29 04:43:00,
2013-10-29 00:44:00,50.2,45.5,30.27,North,5,4.0,8.0,84,0.00,,,0.00,meteohub,2013-10-29 04:44:00,
2013-10-29 00:45:00,50.2,45.5,30.27,NNE,13,3.0,8.0,84,0.00,,,0.00,meteohub,2013-10-29 04:45:00,
2013-10-29 00:47:00,50.0,45.3,30.27,NE,34,3.0,8.0,84,0.00,,,0.00,meteohub,2013-10-29 04:47:00,
2013-10-29 00:48:00,50.0,45.3,30.27,NW,317,4.0,8.0,84,0.00,,,0.00,meteohub,2013-10-29 04:48:00,
2013-10-29 00:49:00,50.0,45.3,30.27,NNE,15,3.0,8.0,84,0.00,,,0.00,meteohub,2013-10-29 04:49:00,
2013-10-29 00:51:00,49.8,44.8,30.27,NNE,20,2.0,8.0,83,0.00,,,0.00,meteohub,2013-10-29 04:51:00,
2013-10-29 00:52:00,49.8,44.8,30.27,North,11,2.0,8.0,83,0.00,,,0.00,meteohub,2013-10-29 04:52:00,
2013-10-29 00:53:00,49.6,44.8,30.27,NNE,22,3.0,8.0,83,0.00,,,0.00,meteohub,2013-10-29 04:53:00,
2013-10-29 00:54:00,49.6,44.8,30.27,NNE,26,2.0,8.0,83,0.00,,,0.00,meteohub,2013-10-29 04:54:00,
2013-10-29 00:56:00,49.6,44.8,30.27,North,0,2.0,8.0,83,0.00,,,0.00,meteohub,2013-10-29 04:56:00,
2013-10-29 00:57:00,49.6,44.4,30.27,NW,306,3.0,8.0,82,0.00,,,0.00,meteohub,2013-10-29 04:57:00,
2013-10-29 00:59:00,49.5,44.2,30.27,NNE,22,3.0,8.0,82,0.00,,,0.00,meteohub,2013-10-29 04:59:00,
2013-10-29 01:00:00,49.5,44.2,30.27,North,5,5.0,8.0,82,0.00,,,0.00,meteohub,2013-10-29 05:00:00,
2013-10-29 01:02:00,49.5,44.2,30.27,NW,323,4.0,8.0,82,0.00,,,0.00,meteohub,2013-10-29 05:02:00,
2013-10-29 01:03:00,49.5,44.2,30.27,North,5,3.0,8.0,82,0.00,,,0.00,meteohub,2013-10-29 05:03:00,
2013-10-29 01:04:00,49.5,44.2,30.27,North,11,0.0,8.0,82,0.00,,,0.00,meteohub,2013-10-29 05:04:00,
2013-10-29 01:05:00,49.5,44.2,30.27,WNW,300,2.0,8.0,82,0.00,,,0.00,meteohub,2013-10-29 05:05:00,
2013-10-29 01:07:00,49.5,44.2,30.27,NNE,19,1.0,7.0,82,0.00,,,0.00,meteohub,2013-10-29 05:07:00,
2013-10-29 01:08:00,49.5,44.2,30.27,NNE,17,2.0,7.0,82,0.00,,,0.00,meteohub,2013-10-29 05:08:00,
2013-10-29 01:09:00,49.5,44.2,30.27,NE,38,4.0,7.0,82,0.00,,,0.00,meteohub,2013-10-29 05:09:00,
2013-10-29 01:10:00,49.5,44.6,30.27,North,10,2.0,7.0,83,0.00,,,0.00,meteohub,2013-10-29 05:10:00,
2013-10-29 01:11:00,49.5,44.2,30.27,North,5,1.0,7.0,82,0.00,,,0.00,meteohub,2013-10-29 05:11:00,
2013-10-29 01:13:00,49.5,44.2,30.27,NNE,23,3.0,7.0,82,0.00,,,0.00,meteohub,2013-10-29 05:13:00,
2013-10-29 01:15:00,49.5,44.2,30.27,NNE,21,5.0,7.0,82,0.00,,,0.00,meteohub,2013-10-29 05:15:00,
2013-10-29 01:16:00,49.5,44.6,30.27,North,10,5.0,7.0,83,0.00,,,0.00,meteohub,2013-10-29 05:16:00,
2013-10-29 01:18:00,49.5,44.6,30.27,NNE,28,3.0,7.0,83,0.00,,,0.00,meteohub,2013-10-29 05:18:00,
2013-10-29 01:19:00,49.5,44.6,30.27,NNE,29,4.0,7.0,83,0.00,,,0.00,meteohub,2013-10-29 05:19:00,
2013-10-29 01:20:00,49.5,44.6,30.27,North,11,5.0,7.0,83,0.00,,,0.00,meteohub,2013-10-29 05:20:00,
2013-10-29 01:21:00,49.6,44.8,30.27,NNE,20,7.0,7.0,83,0.00,,,0.00,meteohub,2013-10-29 05:21:00,
2013-10-29 01:23:00,49.6,44.8,30.27,NNE,28,4.0,7.0,83,0.00,,,0.00,meteohub,2013-10-29 05:23:00,
2013-10-29 01:24:00,49.6,44.8,30.27,NNE,20,3.0,7.0,83,0.00,,,0.00,meteohub,2013-10-29 05:24:00,
2013-10-29 01:25:00,49.6,44.8,30.27,NNE,26,2.0,7.0,83,0.00,,,0.00,meteohub,2013-10-29 05:25:00,
2013-10-29 01:26:00,49.6,44.8,30.27,NNE,30,3.0,7.0,83,0.00,,,0.00,meteohub,2013-10-29 05:26:00,
2013-10-29 01:29:00,49.6,44.8,30.27,NNE,27,9.0,9.0,83,0.00,,,0.00,meteohub,2013-10-29 05:29:00,
2013-10-29 01:30:00,49.6,44.8,30.27,North,5,3.0,9.0,83,0.00,,,0.00,meteohub,2013-10-29 05:30:00,
2013-10-29 01:31:00,49.6,44.8,30.27,NNE,26,4.0,9.0,83,0.00,,,0.00,meteohub,2013-10-29 05:31:00,
2013-10-29 01:35:00,49.8,44.8,30.27,NE,42,4.0,9.0,83,0.00,,,0.00,meteohub,2013-10-29 05:35:00,
2013-10-29 01:36:00,49.8,44.8,30.27,NE,44,3.0,9.0,83,0.00,,,0.00,meteohub,2013-10-29 05:36:00,
2013-10-29 01:37:00,49.8,44.8,30.27,NNE,13,4.0,9.0,83,0.00,,,0.00,meteohub,2013-10-29 05:37:00,
2013-10-29 01:38:00,49.8,44.8,30.27,North,0,4.0,9.0,83,0.00,,,0.00,meteohub,2013-10-29 05:38:00,
2013-10-29 01:40:00,50.0,45.3,30.27,NNE,20,4.0,9.0,84,0.00,,,0.00,meteohub,2013-10-29 05:40:00,
2013-10-29 01:41:00,50.2,45.5,30.27,NNE,19,5.0,9.0,84,0.00,,,0.00,meteohub,2013-10-29 05:41:00,
2013-10-29 01:42:00,50.2,45.5,30.27,NE,36,3.0,9.0,84,0.00,,,0.00,meteohub,2013-10-29 05:42:00,
2013-10-29 01:43:00,50.2,45.5,30.27,NW,317,1.0,9.0,84,0.00,,,0.00,meteohub,2013-10-29 05:43:00,
2013-10-29 01:46:00,50.5,45.9,30.27,NNE,17,5.0,9.0,84,0.00,,,0.00,meteohub,2013-10-29 05:46:00,
2013-10-29 01:47:00,50.5,45.9,30.27,North,355,5.0,9.0,84,0.00,,,0.00,meteohub,2013-10-29 05:47:00,
2013-10-29 01:48:00,50.9,46.2,30.27,NE,42,5.0,9.0,84,0.00,,,0.00,meteohub,2013-10-29 05:48:00,
2013-10-29 01:52:00,52.2,47.5,30.27,NNE,27,6.0,8.0,84,0.00,,,0.00,meteohub,2013-10-29 05:52:00,
2013-10-29 01:53:00,52.5,47.8,30.27,NNE,31,5.0,8.0,84,0.00,,,0.00,meteohub,2013-10-29 05:53:00,
2013-10-29 01:54:00,53.1,48.0,30.27,NNE,29,8.0,8.0,83,0.00,,,0.00,meteohub,2013-10-29 05:54:00,
2013-10-29 01:57:00,54.0,48.0,30.27,NE,40,7.0,15.0,80,0.00,,,0.00,meteohub,2013-10-29 05:57:00,
2013-10-29 01:58:00,54.1,47.5,30.27,NNE,24,6.0,15.0,78,0.00,,,0.00,meteohub,2013-10-29 05:58:00,
2013-10-29 01:59:00,54.3,47.7,30.27,North,0,6.0,15.0,78,0.00,,,0.00,meteohub,2013-10-29 05:59:00,
2013-10-29 02:02:00,55.0,47.7,30.27,NE,40,11.0,15.0,76,0.00,,,0.00,meteohub,2013-10-29 06:02:00,
2013-10-29 02:03:00,55.2,47.8,30.27,NNE,26,10.0,15.0,76,0.00,,,0.00,meteohub,2013-10-29 06:03:00,
2013-10-29 02:04:00,55.2,47.5,30.27,NE,46,6.0,15.0,75,0.00,,,0.00,meteohub,2013-10-29 06:04:00,
2013-10-29 02:07:00,55.6,47.5,30.27,NE,42,6.0,15.0,74,0.00,,,0.00,meteohub,2013-10-29 06:07:00,
2013-10-29 02:08:00,55.8,47.7,30.27,NE,48,7.0,15.0,74,0.00,,,0.00,meteohub,2013-10-29 06:08:00,
2013-10-29 02:09:00,55.8,47.7,30.27,NNE,30,13.0,15.0,74,0.00,,,0.00,meteohub,2013-10-29 06:09:00,
2013-10-29 02:10:00,55.8,47.3,30.27,East,82,7.0,15.0,73,0.00,,,0.00,meteohub,2013-10-29 06:10:00,
2013-10-29 02:11:00,55.8,47.3,30.27,NE,39,7.0,14.0,73,0.00,,,0.00,meteohub,2013-10-29 06:11:00,
2013-10-29 02:12:00,55.9,47.5,30.27,ENE,61,8.0,14.0,73,0.00,,,0.00,meteohub,2013-10-29 06:12:00,
2013-10-29 02:14:00,55.9,47.5,30.27,NE,45,10.0,14.0,73,0.00,,,0.00,meteohub,2013-10-29 06:14:00,
2013-10-29 02:15:00,55.9,47.1,30.27,North,355,9.0,14.0,72,0.00,,,0.00,meteohub,2013-10-29 06:15:00,
2013-10-29 02:16:00,55.9,47.1,30.27,NNE,21,7.0,14.0,72,0.00,,,0.00,meteohub,2013-10-29 06:16:00,
2013-10-29 02:17:00,55.9,47.1,30.27,NE,42,9.0,14.0,72,0.00,,,0.00,meteohub,2013-10-29 06:17:00,
2013-10-29 02:19:00,55.9,47.1,30.27,NE,40,6.0,14.0,72,0.00,,,0.00,meteohub,2013-10-29 06:19:00,
2013-10-29 02:20:00,56.1,46.8,30.27,NNE,15,7.0,14.0,71,0.00,,,0.00,meteohub,2013-10-29 06:20:00,
2013-10-29 02:21:00,56.1,46.8,30.27,NNE,24,12.0,15.0,71,0.00,,,0.00,meteohub,2013-10-29 06:21:00,
2013-10-29 02:22:00,56.1,47.3,30.27,NE,51,9.0,15.0,72,0.00,,,0.00,meteohub,2013-10-29 06:22:00,
2013-10-29 02:23:00,56.1,47.3,30.27,NNE,33,11.0,15.0,72,0.00,,,0.00,meteohub,2013-10-29 06:23:00,
2013-10-29 02:24:00,56.1,47.3,30.28,NE,38,9.0,15.0,72,0.00,,,0.00,meteohub,2013-10-29 06:24:00,
2013-10-29 02:26:00,56.1,46.8,30.27,North,5,8.0,15.0,71,0.00,,,0.00,meteohub,2013-10-29 06:26:00,
2013-10-29 02:27:00,56.1,46.8,30.27,NE,51,6.0,15.0,71,0.00,,,0.00,meteohub,2013-10-29 06:27:00,
2013-10-29 02:28:00,56.1,46.8,30.28,NNE,26,10.0,15.0,71,0.00,,,0.00,meteohub,2013-10-29 06:28:00,
2013-10-29 02:29:00,56.1,46.8,30.28,NE,38,6.0,15.0,71,0.00,,,0.00,meteohub,2013-10-29 06:29:00,
2013-10-29 02:31:00,56.1,46.8,30.27,NNE,13,11.0,17.0,71,0.00,,,0.00,meteohub,2013-10-29 06:31:00,
2013-10-29 02:32:00,56.1,46.8,30.28,North,5,8.0,17.0,71,0.00,,,0.00,meteohub,2013-10-29 06:32:00,
2013-10-29 02:33:00,56.1,46.8,30.28,NE,34,8.0,17.0,71,0.00,,,0.00,meteohub,2013-10-29 06:33:00,
2013-10-29 02:34:00,56.1,46.8,30.28,NE,51,6.0,17.0,71,0.00,,,0.00,meteohub,2013-10-29 06:34:00,
2013-10-29 02:37:00,56.1,46.4,30.28,NE,40,11.0,17.0,70,0.00,,,0.00,meteohub,2013-10-29 06:37:00,
2013-10-29 02:38:00,56.1,46.8,30.28,NE,34,8.0,17.0,71,0.00,,,0.00,meteohub,2013-10-29 06:38:00,
2013-10-29 02:40:00,56.1,46.8,30.27,ENE,58,10.0,17.0,71,0.00,,,0.00,meteohub,2013-10-29 06:40:00,
2013-10-29 02:42:00,56.1,46.4,30.27,NE,34,10.0,14.0,70,0.00,,,0.00,meteohub,2013-10-29 06:42:00,
2013-10-29 02:43:00,56.1,46.4,30.27,NNE,16,7.0,14.0,70,0.00,,,0.00,meteohub,2013-10-29 06:43:00,
2013-10-29 02:44:00,56.1,46.4,30.27,NNE,24,9.0,14.0,70,0.00,,,0.00,meteohub,2013-10-29 06:44:00,
2013-10-29 02:45:00,56.1,46.8,30.27,ENE,69,4.0,14.0,71,0.00,,,0.00,meteohub,2013-10-29 06:45:00,
2013-10-29 02:46:00,56.1,46.8,30.27,ENE,59,6.0,14.0,71,0.00,,,0.00,meteohub,2013-10-29 06:46:00,
2013-10-29 02:48:00,56.3,46.9,30.27,North,355,9.0,14.0,71,0.00,,,0.00,meteohub,2013-10-29 06:48:00,
2013-10-29 02:49:00,56.3,46.9,30.27,North,5,4.0,14.0,71,0.00,,,0.00,meteohub,2013-10-29 06:49:00,
2013-10-29 02:50:00,56.3,47.5,30.27,NE,38,9.0,14.0,72,0.00,,,0.00,meteohub,2013-10-29 06:50:00,
2013-10-29 02:51:00,56.3,47.5,30.27,NNE,17,12.0,14.0,72,0.00,,,0.00,meteohub,2013-10-29 06:51:00,
2013-10-29 02:54:00,56.3,47.5,30.27,NE,35,6.0,14.0,72,0.00,,,0.00,meteohub,2013-10-29 06:54:00,
2013-10-29 02:55:00,56.3,47.5,30.27,NNE,23,9.0,15.0,72,0.00,,,0.00,meteohub,2013-10-29 06:55:00,
2013-10-29 02:56:00,56.1,47.3,30.27,NE,49,7.0,15.0,72,0.00,,,0.00,meteohub,2013-10-29 06:56:00,
2013-10-29 02:57:00,56.1,47.3,30.27,NE,46,10.0,15.0,72,0.00,,,0.00,meteohub,2013-10-29 06:57:00,
2013-10-29 02:59:00,56.1,47.3,30.27,NNE,22,8.0,15.0,72,0.00,,,0.00,meteohub,2013-10-29 06:59:00,
2013-10-29 03:00:00,56.1,47.3,30.27,NNE,32,8.0,15.0,72,0.00,,,0.00,meteohub,2013-10-29 07:00:00,
2013-10-29 03:02:00,56.1,47.3,30.27,ENE,72,8.0,15.0,72,0.00,,,0.00,meteohub,2013-10-29 07:02:00,
2013-10-29 03:05:00,56.1,47.3,30.27,NNE,13,9.0,15.0,72,0.00,,,0.00,meteohub,2013-10-29 07:05:00,
2013-10-29 03:06:00,56.1,47.3,30.27,NE,46,6.0,14.0,72,0.00,,,0.00,meteohub,2013-10-29 07:06:00,
2013-10-29 03:07:00,56.1,47.3,30.27,ENE,68,9.0,14.0,72,0.00,,,0.00,meteohub,2013-10-29 07:07:00,
2013-10-29 03:08:00,56.3,47.5,30.27,North,5,8.0,14.0,72,0.00,,,0.00,meteohub,2013-10-29 07:08:00,
2013-10-29 03:10:00,56.3,47.5,30.27,NNE,22,8.0,14.0,72,0.00,,,0.00,meteohub,2013-10-29 07:10:00,
2013-10-29 03:11:00,56.3,47.5,30.27,NE,44,6.0,14.0,72,0.00,,,0.00,meteohub,2013-10-29 07:11:00,
2013-10-29 03:12:00,56.3,47.5,30.27,NNE,15,11.0,14.0,72,0.00,,,0.00,meteohub,2013-10-29 07:12:00,
2013-10-29 03:13:00,56.3,47.5,30.27,NE,52,11.0,14.0,72,0.00,,,0.00,meteohub,2013-10-29 07:13:00,
2013-10-29 03:15:00,56.3,47.8,30.27,NNE,22,8.0,14.0,73,0.00,,,0.00,meteohub,2013-10-29 07:15:00,
2013-10-29 03:16:00,56.3,47.8,30.27,ENE,68,9.0,14.0,73,0.00,,,0.00,meteohub,2013-10-29 07:16:00,
2013-10-29 03:18:00,56.3,47.8,30.27,NE,49,9.0,14.0,73,0.00,,,0.00,meteohub,2013-10-29 07:18:00,
2013-10-29 03:19:00,56.1,47.3,30.27,NNE,14,8.0,14.0,72,0.00,,,0.00,meteohub,2013-10-29 07:19:00,
2013-10-29 03:20:00,56.1,47.3,30.27,NE,54,7.0,15.0,72,0.00,,,0.00,meteohub,2013-10-29 07:20:00,
2013-10-29 03:21:00,56.1,47.7,30.27,NE,46,4.0,15.0,73,0.00,,,0.00,meteohub,2013-10-29 07:21:00,
2013-10-29 03:22:00,56.1,47.7,30.27,NE,35,11.0,15.0,73,0.00,,,0.00,meteohub,2013-10-29 07:22:00,
2013-10-29 03:23:00,56.1,47.7,30.27,NNE,26,10.0,15.0,73,0.00,,,0.00,meteohub,2013-10-29 07:23:00,
2013-10-29 03:25:00,56.1,47.7,30.27,NE,46,7.0,15.0,73,0.00,,,0.00,meteohub,2013-10-29 07:25:00,
2013-10-29 03:26:00,56.1,47.3,30.27,NE,55,4.0,15.0,72,0.00,,,0.00,meteohub,2013-10-29 07:26:00,
2013-10-29 03:27:00,56.1,47.3,30.27,NE,42,11.0,15.0,72,0.00,,,0.00,meteohub,2013-10-29 07:27:00,
2013-10-29 03:28:00,56.1,47.7,30.27,ENE,64,10.0,15.0,73,0.00,,,0.00,meteohub,2013-10-29 07:28:00,
2013-10-29 03:30:00,56.1,47.7,30.27,NNE,26,9.0,15.0,73,0.00,,,0.00,meteohub,2013-10-29 07:30:00,
2013-10-29 03:31:00,56.1,47.3,30.27,NE,54,9.0,15.0,72,0.00,,,0.00,meteohub,2013-10-29 07:31:00,
2013-10-29 03:32:00,56.1,47.3,30.27,NE,37,5.0,15.0,72,0.00,,,0.00,meteohub,2013-10-29 07:32:00,
2013-10-29 03:34:00,56.1,47.3,30.28,North,5,11.0,15.0,72,0.00,,,0.00,meteohub,2013-10-29 07:34:00,
2013-10-29 03:35:00,56.1,47.3,30.28,NNE,21,10.0,15.0,72,0.00,,,0.00,meteohub,2013-10-29 07:35:00,
2013-10-29 03:36:00,56.1,47.3,30.28,NE,34,6.0,15.0,72,0.00,,,0.00,meteohub,2013-10-29 07:36:00,
2013-10-29 03:37:00,56.1,47.7,30.28,NNE,15,7.0,15.0,73,0.00,,,0.00,meteohub,2013-10-29 07:37:00,
2013-10-29 03:38:00,56.1,47.7,30.28,East,84,8.0,15.0,73,0.00,,,0.00,meteohub,2013-10-29 07:38:00,
2013-10-29 03:40:00,55.9,47.5,30.28,ENE,65,6.0,15.0,73,0.00,,,0.00,meteohub,2013-10-29 07:40:00,
2013-10-29 03:41:00,56.1,47.7,30.28,East,91,10.0,17.0,73,0.00,,,0.00,meteohub,2013-10-29 07:41:00,
2013-10-29 03:43:00,55.9,47.5,30.28,NE,38,6.0,17.0,73,0.00,,,0.00,meteohub,2013-10-29 07:43:00,
2013-10-29 03:45:00,55.9,47.5,30.28,ENE,67,18.0,18.0,73,0.00,,,0.00,meteohub,2013-10-29 07:45:00,
2013-10-29 03:46:00,55.9,47.5,30.28,NE,44,10.0,17.0,73,0.00,,,0.00,meteohub,2013-10-29 07:46:00,
2013-10-29 03:48:00,55.9,47.5,30.28,ENE,58,5.0,17.0,73,0.00,,,0.00,meteohub,2013-10-29 07:48:00,
2013-10-29 03:50:00,55.9,47.5,30.28,NNE,17,7.0,17.0,73,0.00,,,0.00,meteohub,2013-10-29 07:50:00,
2013-10-29 03:51:00,55.8,47.3,30.28,NE,50,7.0,18.0,73,0.00,,,0.00,meteohub,2013-10-29 07:51:00,
2013-10-29 03:53:00,55.9,47.8,30.28,NNE,12,5.0,18.0,74,0.00,,,0.00,meteohub,2013-10-29 07:53:00,
2013-10-29 03:55:00,55.9,47.8,30.28,ENE,70,8.0,18.0,74,0.00,,,0.00,meteohub,2013-10-29 07:55:00,
2013-10-29 03:57:00,55.9,47.8,30.28,NNE,13,9.0,18.0,74,0.00,,,0.00,meteohub,2013-10-29 07:57:00,
2013-10-29 03:58:00,55.9,47.5,30.28,NE,35,5.0,18.0,73,0.00,,,0.00,meteohub,2013-10-29 07:58:00,
2013-10-29 04:00:00,55.8,47.3,30.28,NNE,12,8.0,14.0,73,0.00,,,0.00,meteohub,2013-10-29 08:00:00,
2013-10-29 04:02:00,55.8,47.3,30.28,NE,35,13.0,14.0,73,0.00,,,0.00,meteohub,2013-10-29 08:02:00,
2013-10-29 04:03:00,55.8,47.3,30.28,East,80,12.0,14.0,73,0.00,,,0.00,meteohub,2013-10-29 08:03:00,
2013-10-29 04:04:00,55.8,47.3,30.28,NNE,24,10.0,14.0,73,0.00,,,0.00,meteohub,2013-10-29 08:04:00,
2013-10-29 04:06:00,55.8,47.7,30.28,NE,38,5.0,14.0,74,0.00,,,0.00,meteohub,2013-10-29 08:06:00,
2013-10-29 04:07:00,55.8,47.7,30.28,ENE,58,5.0,14.0,74,0.00,,,0.00,meteohub,2013-10-29 08:07:00,
2013-10-29 04:08:00,55.8,47.7,30.28,NE,56,5.0,14.0,74,0.00,,,0.00,meteohub,2013-10-29 08:08:00,
2013-10-29 04:09:00,55.8,47.7,30.28,ENE,64,5.0,14.0,74,0.00,,,0.00,meteohub,2013-10-29 08:09:00,
2013-10-29 04:12:00,55.6,47.1,30.28,NE,45,11.0,13.0,73,0.00,,,0.00,meteohub,2013-10-29 08:12:00,
2013-10-29 04:13:00,55.6,47.5,30.28,NNE,28,10.0,13.0,74,0.00,,,0.00,meteohub,2013-10-29 08:13:00,
2013-10-29 04:14:00,55.6,47.5,30.28,NE,36,9.0,13.0,74,0.00,,,0.00,meteohub,2013-10-29 08:14:00,
2013-10-29 04:17:00,55.4,46.9,30.28,NE,42,9.0,13.0,73,0.00,,,0.00,meteohub,2013-10-29 08:17:00,
2013-10-29 04:18:00,55.4,46.9,30.28,NNE,33,9.0,13.0,73,0.00,,,0.00,meteohub,2013-10-29 08:18:00,
2013-10-29 04:19:00,55.4,46.9,30.28,NE,37,9.0,13.0,73,0.00,,,0.00,meteohub,2013-10-29 08:19:00,
2013-10-29 04:20:00,55.4,46.9,30.28,East,82,5.0,13.0,73,0.00,,,0.00,meteohub,2013-10-29 08:20:00,
2013-10-29 04:23:00,55.2,46.8,30.28,NNE,12,3.0,14.0,73,0.00,,,0.00,meteohub,2013-10-29 08:23:00,
2013-10-29 04:24:00,55.2,46.8,30.28,NE,36,10.0,14.0,73,0.00,,,0.00,meteohub,2013-10-29 08:24:00,
2013-10-29 04:25:00,55.2,46.8,30.28,NNE,19,10.0,14.0,73,0.00,,,0.00,meteohub,2013-10-29 08:25:00,
2013-10-29 04:26:00,55.2,46.8,30.28,NE,38,7.0,14.0,73,0.00,,,0.00,meteohub,2013-10-29 08:26:00,
2013-10-29 04:28:00,55.2,46.8,30.28,NNE,30,4.0,14.0,73,0.00,,,0.00,meteohub,2013-10-29 08:28:00,
2013-10-29 04:30:00,55.2,47.1,30.28,NNE,30,8.0,14.0,74,0.00,,,0.00,meteohub,2013-10-29 08:30:00,
2013-10-29 04:32:00,55.2,46.8,30.29,ENE,62,9.0,14.0,73,0.00,,,0.00,meteohub,2013-10-29 08:32:00,
2013-10-29 04:33:00,55.2,46.8,30.29,ENE,74,7.0,14.0,73,0.00,,,0.00,meteohub,2013-10-29 08:33:00,
2013-10-29 04:35:00,55.4,47.3,30.29,NE,42,5.0,14.0,74,0.00,,,0.00,meteohub,2013-10-29 08:35:00,
2013-10-29 04:36:00,55.2,47.1,30.29,NE,43,9.0,14.0,74,0.00,,,0.00,meteohub,2013-10-29 08:36:00,
2013-10-29 04:37:00,55.2,46.8,30.29,NNE,32,6.0,14.0,73,0.00,,,0.00,meteohub,2013-10-29 08:37:00,
2013-10-29 04:38:00,55.2,46.8,30.29,NE,48,6.0,14.0,73,0.00,,,0.00,meteohub,2013-10-29 08:38:00,
2013-10-29 04:40:00,55.2,46.8,30.29,ENE,63,5.0,14.0,73,0.00,,,0.00,meteohub,2013-10-29 08:40:00,
2013-10-29 04:41:00,55.2,46.8,30.29,ENE,74,9.0,13.0,73,0.00,,,0.00,meteohub,2013-10-29 08:41:00,
2013-10-29 04:42:00,55.2,46.8,30.29,NE,43,7.0,13.0,73,0.00,,,0.00,meteohub,2013-10-29 08:42:00,
2013-10-29 04:45:00,55.0,46.6,30.29,ENE,66,5.0,14.0,73,0.00,,,0.00,meteohub,2013-10-29 08:45:00,
2013-10-29 04:46:00,55.2,46.8,30.29,NNE,28,6.0,14.0,73,0.00,,,0.00,meteohub,2013-10-29 08:46:00,
2013-10-29 04:47:00,55.0,46.6,30.29,NNE,21,4.0,14.0,73,0.00,,,0.00,meteohub,2013-10-29 08:47:00,
2013-10-29 04:51:00,55.0,46.6,30.29,NE,36,7.0,14.0,73,0.00,,,0.00,meteohub,2013-10-29 08:51:00,
2013-10-29 04:52:00,55.0,46.6,30.29,ENE,64,6.0,14.0,73,0.00,,,0.00,meteohub,2013-10-29 08:52:00,
2013-10-29 04:53:00,55.0,46.6,30.29,North,5,5.0,14.0,73,0.00,,,0.00,meteohub,2013-10-29 08:53:00,
2013-10-29 04:56:00,55.0,46.6,30.29,ENE,58,7.0,14.0,73,0.00,,,0.00,meteohub,2013-10-29 08:56:00,
2013-10-29 04:57:00,55.0,46.6,30.29,NNE,28,6.0,14.0,73,0.00,,,0.00,meteohub,2013-10-29 08:57:00,
2013-10-29 04:58:00,55.0,46.6,30.30,NNE,28,8.0,14.0,73,0.00,,,0.00,meteohub,2013-10-29 08:58:00,
2013-10-29 05:01:00,55.0,46.6,30.30,NE,53,4.0,14.0,73,0.00,,,0.00,meteohub,2013-10-29 09:01:00,
2013-10-29 05:02:00,55.0,46.6,30.30,ENE,71,6.0,14.0,73,0.00,,,0.00,meteohub,2013-10-29 09:02:00,
2013-10-29 05:03:00,55.0,46.6,30.30,NE,42,6.0,14.0,73,0.00,,,0.00,meteohub,2013-10-29 09:03:00,
2013-10-29 05:06:00,54.9,46.0,30.30,NE,46,7.0,14.0,72,0.00,,,0.00,meteohub,2013-10-29 09:06:00,
2013-10-29 05:07:00,54.9,46.0,30.30,NE,45,11.0,14.0,72,0.00,,,0.00,meteohub,2013-10-29 09:07:00,
2013-10-29 05:08:00,54.9,46.0,30.30,East,82,8.0,14.0,72,0.00,,,0.00,meteohub,2013-10-29 09:08:00,
2013-10-29 05:12:00,54.9,46.4,30.30,ENE,71,8.0,14.0,73,0.00,,,0.00,meteohub,2013-10-29 09:12:00,
2013-10-29 05:13:00,54.9,46.4,30.30,NNE,30,9.0,14.0,73,0.00,,,0.00,meteohub,2013-10-29 09:13:00,
2013-10-29 05:14:00,54.9,46.4,30.30,NNE,31,9.0,14.0,73,0.00,,,0.00,meteohub,2013-10-29 09:14:00,
2013-10-29 05:17:00,54.9,46.0,30.30,ENE,58,6.0,14.0,72,0.00,,,0.00,meteohub,2013-10-29 09:17:00,
2013-10-29 05:18:00,54.9,46.0,30.30,NE,50,7.0,14.0,72,0.00,,,0.00,meteohub,2013-10-29 09:18:00,
2013-10-29 05:19:00,54.9,46.0,30.30,NNE,18,8.0,14.0,72,0.00,,,0.00,meteohub,2013-10-29 09:19:00,
2013-10-29 05:20:00,54.9,46.4,30.30,NNE,28,10.0,14.0,73,0.00,,,0.00,meteohub,2013-10-29 09:20:00,
2013-10-29 05:22:00,54.9,46.4,30.30,ENE,75,10.0,14.0,73,0.00,,,0.00,meteohub,2013-10-29 09:22:00,
2013-10-29 05:23:00,54.9,46.0,30.30,NE,53,6.0,14.0,72,0.00,,,0.00,meteohub,2013-10-29 09:23:00,
2013-10-29 05:24:00,54.9,46.0,30.30,NNE,30,4.0,14.0,72,0.00,,,0.00,meteohub,2013-10-29 09:24:00,
2013-10-29 05:27:00,54.9,46.4,30.30,NNE,28,5.0,13.0,73,0.00,,,0.00,meteohub,2013-10-29 09:27:00,
2013-10-29 05:28:00,54.7,45.9,30.30,NE,56,10.0,13.0,72,0.00,,,0.00,meteohub,2013-10-29 09:28:00,
2013-10-29 05:29:00,54.7,45.9,30.30,NE,37,14.0,14.0,72,0.00,,,0.00,meteohub,2013-10-29 09:29:00,
2013-10-29 05:32:00,54.7,45.9,30.30,NE,38,9.0,13.0,72,0.00,,,0.00,meteohub,2013-10-29 09:32:00,
2013-10-29 05:33:00,54.7,45.9,30.30,NNE,32,8.0,13.0,72,0.00,,,0.00,meteohub,2013-10-29 09:33:00,
2013-10-29 05:34:00,54.7,45.9,30.30,NNE,24,6.0,13.0,72,0.00,,,0.00,meteohub,2013-10-29 09:34:00,
2013-10-29 05:35:00,54.7,45.9,30.30,NE,44,10.0,13.0,72,0.00,,,0.00,meteohub,2013-10-29 09:35:00,
2013-10-29 05:38:00,54.7,45.9,30.31,NNE,30,8.0,14.0,72,0.00,,,0.00,meteohub,2013-10-29 09:38:00,
2013-10-29 05:39:00,54.7,45.9,30.31,NE,48,13.0,14.0,72,0.00,,,0.00,meteohub,2013-10-29 09:39:00,
2013-10-29 05:40:00,54.7,45.9,30.31,NNE,17,7.0,14.0,72,0.00,,,0.00,meteohub,2013-10-29 09:40:00,
2013-10-29 05:41:00,54.7,45.9,30.31,NNE,32,4.0,16.0,72,0.00,,,0.00,meteohub,2013-10-29 09:41:00,
2013-10-29 05:43:00,54.7,45.9,30.31,NNE,13,4.0,16.0,72,0.00,,,0.00,meteohub,2013-10-29 09:43:00,
2013-10-29 05:44:00,54.7,45.9,30.31,NE,42,7.0,16.0,72,0.00,,,0.00,meteohub,2013-10-29 09:44:00,
2013-10-29 05:45:00,54.7,45.9,30.31,NNE,21,9.0,16.0,72,0.00,,,0.00,meteohub,2013-10-29 09:45:00,
2013-10-29 05:46:00,54.7,45.5,30.31,North,9,7.0,16.0,71,0.00,,,0.00,meteohub,2013-10-29 09:46:00,
2013-10-29 05:48:00,54.7,45.9,30.31,NNE,21,10.0,16.0,72,0.00,,,0.00,meteohub,2013-10-29 09:48:00,
2013-10-29 05:49:00,54.7,45.9,30.31,NNE,16,8.0,16.0,72,0.00,,,0.00,meteohub,2013-10-29 09:49:00,
2013-10-29 05:50:00,54.7,45.9,30.31,NE,51,9.0,16.0,72,0.00,,,0.00,meteohub,2013-10-29 09:50:00,
2013-10-29 05:51:00,54.7,45.9,30.31,North,10,4.0,16.0,72,0.00,,,0.00,meteohub,2013-10-29 09:51:00,
2013-10-29 05:52:00,54.7,45.9,30.32,NE,46,5.0,16.0,72,0.00,,,0.00,meteohub,2013-10-29 09:52:00,
2013-10-29 05:54:00,54.7,45.9,30.31,NE,36,9.0,16.0,72,0.00,,,0.00,meteohub,2013-10-29 09:54:00,
2013-10-29 05:55:00,54.7,45.9,30.31,NNE,33,6.0,16.0,72,0.00,,,0.00,meteohub,2013-10-29 09:55:00,
2013-10-29 05:56:00,54.7,45.9,30.31,NNE,13,12.0,16.0,72,0.00,,,0.00,meteohub,2013-10-29 09:56:00,
2013-10-29 05:57:00,54.7,45.9,30.31,NNE,30,10.0,13.0,72,0.00,,,0.00,meteohub,2013-10-29 09:57:00,
2013-10-29 05:59:00,54.7,45.9,30.32,NNE,30,6.0,13.0,72,0.00,,,0.00,meteohub,2013-10-29 09:59:00,
2013-10-29 06:00:00,54.7,45.9,30.32,NE,44,5.0,13.0,72,0.00,,,0.00,meteohub,2013-10-29 10:00:00,
2013-10-29 06:02:00,54.7,45.9,30.32,NNE,21,5.0,13.0,72,0.00,,,0.00,meteohub,2013-10-29 10:02:00,
2013-10-29 06:03:00,54.7,45.5,30.32,NE,37,9.0,13.0,71,0.00,,,0.00,meteohub,2013-10-29 10:03:00,
2013-10-29 06:05:00,54.7,45.5,30.32,NNE,32,9.0,13.0,71,0.00,,,0.00,meteohub,2013-10-29 10:05:00,
2013-10-29 06:06:00,54.7,45.5,30.32,NNE,24,12.0,13.0,71,0.00,,,0.00,meteohub,2013-10-29 10:06:00,
2013-10-29 06:07:00,54.7,45.5,30.32,NE,42,10.0,13.0,71,0.00,,,0.00,meteohub,2013-10-29 10:07:00,
2013-10-29 06:08:00,54.7,45.1,30.31,NE,44,6.0,13.0,70,0.00,,,0.00,meteohub,2013-10-29 10:08:00,
2013-10-29 06:10:00,54.7,45.1,30.32,ENE,71,6.0,13.0,70,0.00,,,0.00,meteohub,2013-10-29 10:10:00,
2013-10-29 06:11:00,54.7,45.1,30.31,NNE,21,5.0,13.0,70,0.00,,,0.00,meteohub,2013-10-29 10:11:00,
2013-10-29 06:12:00,54.7,45.1,30.31,East,101,6.0,13.0,70,0.00,,,0.00,meteohub,2013-10-29 10:12:00,
2013-10-29 06:13:00,54.7,45.1,30.31,North,355,4.0,13.0,70,0.00,,,0.00,meteohub,2013-10-29 10:13:00,
2013-10-29 06:15:00,54.7,45.1,30.31,East,82,9.0,13.0,70,0.00,,,0.00,meteohub,2013-10-29 10:15:00,
2013-10-29 06:16:00,54.7,45.5,30.31,ENE,63,6.0,12.0,71,0.00,,,0.00,meteohub,2013-10-29 10:16:00,
2013-10-29 06:17:00,54.9,45.7,30.31,NE,34,6.0,12.0,71,0.00,,,0.00,meteohub,2013-10-29 10:17:00,
2013-10-29 06:18:00,54.9,45.7,30.31,NNE,22,5.0,12.0,71,0.00,,,0.00,meteohub,2013-10-29 10:18:00,
2013-10-29 06:19:00,54.9,45.7,30.31,NNE,19,2.0,12.0,71,0.00,,,0.00,meteohub,2013-10-29 10:19:00,
2013-10-29 06:20:00,54.7,45.1,30.31,NNE,27,8.0,14.0,70,0.00,,,0.00,meteohub,2013-10-29 10:20:00,
2013-10-29 06:22:00,54.7,45.1,30.31,NNE,26,5.0,14.0,70,0.00,,,0.00,meteohub,2013-10-29 10:22:00,
2013-10-29 06:23:00,54.7,45.1,30.31,NNE,32,6.0,14.0,70,0.00,,,0.00,meteohub,2013-10-29 10:23:00,
2013-10-29 06:24:00,54.7,45.1,30.31,NNE,27,10.0,14.0,70,0.00,,,0.00,meteohub,2013-10-29 10:24:00,
2013-10-29 06:26:00,54.7,45.5,30.31,NE,53,6.0,14.0,71,0.00,,,0.00,meteohub,2013-10-29 10:26:00,
2013-10-29 06:27:00,54.7,45.5,30.31,NNE,16,4.0,14.0,71,0.00,,,0.00,meteohub,2013-10-29 10:27:00,
2013-10-29 06:28:00,54.7,45.9,30.31,ENE,58,11.0,14.0,72,0.00,,,0.00,meteohub,2013-10-29 10:28:00,
2013-10-29 06:29:00,54.7,45.5,30.31,NE,53,4.0,14.0,71,0.00,,,0.00,meteohub,2013-10-29 10:29:00,
2013-10-29 06:30:00,54.7,45.5,30.31,NE,40,3.0,14.0,71,0.00,,,0.00,meteohub,2013-10-29 10:30:00,
2013-10-29 06:31:00,54.7,45.5,30.31,NNE,13,7.0,14.0,71,0.00,,,0.00,meteohub,2013-10-29 10:31:00,
2013-10-29 06:32:00,54.7,45.5,30.32,NE,34,4.0,14.0,71,0.00,,,0.00,meteohub,2013-10-29 10:32:00,
2013-10-29 06:33:00,54.7,45.5,30.32,ENE,61,9.0,14.0,71,0.00,,,0.00,meteohub,2013-10-29 10:33:00,
2013-10-29 06:34:00,54.7,45.5,30.32,NE,48,6.0,14.0,71,0.00,,,0.00,meteohub,2013-10-29 10:34:00,
2013-10-29 06:35:00,54.7,45.5,30.32,NE,46,11.0,14.0,71,0.00,,,0.00,meteohub,2013-10-29 10:35:00,
2013-10-29 06:36:00,54.7,45.5,30.32,NNE,26,9.0,13.0,71,0.00,,,0.00,meteohub,2013-10-29 10:36:00,
2013-10-29 06:38:00,54.7,45.5,30.32,NNE,24,15.0,15.0,71,0.00,,,0.00,meteohub,2013-10-29 10:38:00,
2013-10-29 06:39:00,54.7,45.5,30.32,NE,46,9.0,13.0,71,0.00,,,0.00,meteohub,2013-10-29 10:39:00,
2013-10-29 06:40:00,54.7,45.1,30.32,NNE,23,6.0,14.0,70,0.00,,,0.00,meteohub,2013-10-29 10:40:00,
2013-10-29 06:41:00,54.7,45.5,30.32,NE,38,7.0,14.0,71,0.00,,,0.00,meteohub,2013-10-29 10:41:00,
2013-10-29 06:43:00,54.7,45.1,30.32,ENE,59,9.0,14.0,70,0.00,,,0.00,meteohub,2013-10-29 10:43:00,
2013-10-29 06:45:00,54.5,45.3,30.32,NNE,25,6.0,14.0,71,0.00,,,0.00,meteohub,2013-10-29 10:45:00,
2013-10-29 06:46:00,54.5,45.0,30.32,NNE,32,4.0,15.0,70,0.00,,,0.00,meteohub,2013-10-29 10:46:00,
2013-10-29 06:47:00,54.5,45.0,30.32,NE,46,6.0,15.0,70,0.00,,,0.00,meteohub,2013-10-29 10:47:00,
2013-10-29 06:48:00,54.3,44.4,30.32,NNW,338,6.0,15.0,69,0.00,,,0.00,meteohub,2013-10-29 10:48:00,
2013-10-29 06:50:00,54.3,44.4,30.32,ENE,63,9.0,15.0,69,0.00,,,0.00,meteohub,2013-10-29 10:50:00,
2013-10-29 06:51:00,54.3,44.4,30.32,NE,50,10.0,15.0,69,0.00,,,0.00,meteohub,2013-10-29 10:51:00,
2013-10-29 06:52:00,54.3,44.8,30.32,NE,43,4.0,15.0,70,0.00,,,0.00,meteohub,2013-10-29 10:52:00,
2013-10-29 06:54:00,54.3,44.8,30.32,North,11,8.0,15.0,70,0.00,,,0.00,meteohub,2013-10-29 10:54:00,
2013-10-29 06:55:00,54.3,44.8,30.32,NE,42,7.0,13.0,70,0.00,,,0.00,meteohub,2013-10-29 10:55:00,
2013-10-29 06:56:00,54.3,44.8,30.32,ENE,71,5.0,13.0,70,0.00,,,0.00,meteohub,2013-10-29 10:56:00,
2013-10-29 06:57:00,54.3,44.8,30.32,NE,38,5.0,13.0,70,0.00,,,0.00,meteohub,2013-10-29 10:57:00,
2013-10-29 06:58:00,54.3,44.8,30.32,North,355,5.0,13.0,70,0.00,,,0.00,meteohub,2013-10-29 10:58:00,
2013-10-29 06:59:00,54.3,44.8,30.32,NE,51,4.0,13.0,70,0.00,,,0.00,meteohub,2013-10-29 10:59:00,
2013-10-29 07:00:00,54.5,45.3,30.32,North,355,4.0,13.0,71,0.00,,,0.00,meteohub,2013-10-29 11:00:00,
2013-10-29 07:01:00,54.5,45.3,30.32,North,5,5.0,13.0,71,0.00,,,0.00,meteohub,2013-10-29 11:01:00,
2013-10-29 07:02:00,54.3,45.1,30.32,NNE,26,6.0,13.0,71,0.00,,,0.00,meteohub,2013-10-29 11:02:00,
2013-10-29 07:03:00,54.3,45.1,30.32,NE,51,6.0,13.0,71,0.00,,,0.00,meteohub,2013-10-29 11:03:00,
2013-10-29 07:04:00,54.3,45.1,30.32,NNE,18,11.0,13.0,71,0.00,,,0.00,meteohub,2013-10-29 11:04:00,
2013-10-29 07:06:00,54.3,44.8,30.32,NE,55,7.0,13.0,70,0.00,,,0.00,meteohub,2013-10-29 11:06:00,
2013-10-29 07:07:00,54.3,44.8,30.32,NNE,26,8.0,13.0,70,0.00,,,0.00,meteohub,2013-10-29 11:07:00,
2013-10-29 07:08:00,54.3,45.1,30.32,NNE,19,5.0,13.0,71,0.00,,,0.00,meteohub,2013-10-29 11:08:00,
2013-10-29 07:09:00,54.3,45.1,30.32,NNE,17,5.0,13.0,71,0.00,,,0.00,meteohub,2013-10-29 11:09:00,
2013-10-29 07:11:00,54.3,44.8,30.32,NE,49,5.0,11.0,70,0.00,,,0.00,meteohub,2013-10-29 11:11:00,
2013-10-29 07:12:00,54.3,44.8,30.33,NNE,28,5.0,11.0,70,0.00,,,0.00,meteohub,2013-10-29 11:12:00,
2013-10-29 07:13:00,54.3,44.8,30.33,North,10,8.0,11.0,70,0.00,,,0.00,meteohub,2013-10-29 11:13:00,
2013-10-29 07:16:00,54.3,44.4,30.33,NNE,28,6.0,11.0,69,0.00,,,0.00,meteohub,2013-10-29 11:16:00,
2013-10-29 07:17:00,54.3,44.4,30.33,NE,36,6.0,11.0,69,0.00,,,0.00,meteohub,2013-10-29 11:17:00,
2013-10-29 07:19:00,54.3,44.1,30.33,NNE,28,9.0,11.0,68,0.00,,,0.00,meteohub,2013-10-29 11:19:00,
2013-10-29 07:21:00,54.3,44.1,30.33,NNE,33,9.0,12.0,68,0.00,,,0.00,meteohub,2013-10-29 11:21:00,
2013-10-29 07:22:00,54.3,44.1,30.33,NNE,19,8.0,12.0,68,0.00,,,0.00,meteohub,2013-10-29 11:22:00,
2013-10-29 07:23:00,54.3,44.1,30.33,NNE,27,4.0,12.0,68,0.00,,,0.00,meteohub,2013-10-29 11:23:00,
2013-10-29 07:24:00,54.3,44.1,30.33,NNE,17,5.0,12.0,68,0.00,,,0.00,meteohub,2013-10-29 11:24:00,
2013-10-29 07:26:00,54.5,43.7,30.33,North,10,1.0,12.0,67,0.00,,,0.00,meteohub,2013-10-29 11:26:00,
2013-10-29 07:27:00,54.5,43.7,30.33,North,10,0.0,12.0,67,0.00,,,0.00,meteohub,2013-10-29 11:27:00,
2013-10-29 07:28:00,54.3,44.1,30.33,North,5,4.0,12.0,68,0.00,,,0.00,meteohub,2013-10-29 11:28:00,
2013-10-29 07:29:00,54.3,44.1,30.33,NNE,18,2.0,12.0,68,0.00,,,0.00,meteohub,2013-10-29 11:29:00,
2013-10-29 07:30:00,54.0,43.7,30.33,NNE,24,3.0,12.0,68,0.00,,,0.00,meteohub,2013-10-29 11:30:00,
2013-10-29 07:32:00,53.4,43.5,30.33,SSE,159,2.0,13.0,69,0.00,,,0.00,meteohub,2013-10-29 11:32:00,
2013-10-29 07:34:00,52.9,43.3,30.33,North,5,3.0,13.0,70,0.00,,,0.00,meteohub,2013-10-29 11:34:00,
2013-10-29 07:36:00,52.3,43.2,30.33,North,5,0.0,13.0,71,0.00,,,0.00,meteohub,2013-10-29 11:36:00,
2013-10-29 07:37:00,52.2,43.0,30.33,North,10,3.0,13.0,71,0.00,,,0.00,meteohub,2013-10-29 11:37:00,
2013-10-29 07:39:00,51.4,42.8,30.33,NNW,331,0.0,13.0,72,0.00,,,0.00,meteohub,2013-10-29 11:39:00,
2013-10-29 07:40:00,51.4,42.8,30.33,NNW,331,0.0,13.0,72,0.00,,,0.00,meteohub,2013-10-29 11:40:00,
2013-10-29 07:41:00,51.3,43.0,30.33,NNW,346,3.0,10.0,73,0.00,,,0.00,meteohub,2013-10-29 11:41:00,
2013-10-29 07:42:00,51.1,42.8,30.33,NNW,329,1.0,10.0,73,0.00,,,0.00,meteohub,2013-10-29 11:42:00,
2013-10-29 07:45:00,50.4,42.4,30.33,North,0,1.0,10.0,74,0.00,,,0.00,meteohub,2013-10-29 11:45:00,
2013-10-29 07:46:00,50.2,42.3,30.33,North,355,2.0,5.0,74,0.00,,,0.00,meteohub,2013-10-29 11:46:00,
2013-10-29 07:47:00,50.0,42.1,30.33,NNE,13,2.0,5.0,74,0.00,,,0.00,meteohub,2013-10-29 11:47:00,
2013-10-29 07:48:00,49.8,42.3,30.33,WNW,291,1.0,5.0,75,0.00,,,0.00,meteohub,2013-10-29 11:48:00,
2013-10-29 07:50:00,49.5,41.9,30.34,NNE,17,4.0,5.0,75,0.00,,,0.00,meteohub,2013-10-29 11:50:00,
2013-10-29 07:51:00,49.1,41.9,30.33,SW,233,1.0,4.0,76,0.00,,,0.00,meteohub,2013-10-29 11:51:00,
2013-10-29 07:52:00,48.9,41.7,30.33,NNE,19,3.0,4.0,76,0.00,,,0.00,meteohub,2013-10-29 11:52:00,
2013-10-29 07:53:00,48.9,41.7,30.34,NNE,20,3.0,4.0,76,0.00,,,0.00,meteohub,2013-10-29 11:53:00,
2013-10-29 07:54:00,48.9,42.1,30.33,NNE,20,1.0,4.0,77,0.00,,,0.00,meteohub,2013-10-29 11:54:00,
2013-10-29 07:55:00,48.7,41.9,30.33,North,11,1.0,4.0,77,0.00,,,0.00,meteohub,2013-10-29 11:55:00,
2013-10-29 07:56:00,48.7,41.9,30.33,North,355,2.0,5.0,77,0.00,,,0.00,meteohub,2013-10-29 11:56:00,
2013-10-29 07:58:00,48.7,41.9,30.34,North,355,0.0,5.0,77,0.00,,,0.00,meteohub,2013-10-29 11:58:00,
2013-10-29 07:59:00,48.6,42.1,30.33,North,355,0.0,5.0,78,0.00,,,0.00,meteohub,2013-10-29 11:59:00,
2013-10-29 08:00:00,48.6,42.1,30.34,North,355,0.0,5.0,78,0.00,,,0.00,meteohub,2013-10-29 12:00:00,
2013-10-29 08:01:00,48.6,42.1,30.33,North,355,0.0,5.0,78,0.00,,,0.00,meteohub,2013-10-29 12:01:00,
2013-10-29 08:02:00,48.6,42.1,30.33,NNW,327,0.0,5.0,78,0.00,,,0.00,meteohub,2013-10-29 12:02:00,
2013-10-29 08:04:00,48.6,42.1,30.34,NNW,328,2.0,5.0,78,0.00,,,0.00,meteohub,2013-10-29 12:04:00,
2013-10-29 08:05:00,48.4,41.9,30.34,NNW,329,2.0,5.0,78,0.00,,,0.00,meteohub,2013-10-29 12:05:00,
2013-10-29 08:06:00,48.4,41.9,30.34,NNW,329,0.0,4.0,78,0.00,,,0.00,meteohub,2013-10-29 12:06:00,
2013-10-29 08:07:00,48.4,42.3,30.34,NNE,31,4.0,4.0,79,0.00,,,0.00,meteohub,2013-10-29 12:07:00,
2013-10-29 08:09:00,48.4,42.3,30.34,NE,40,0.0,4.0,79,0.00,,,0.00,meteohub,2013-10-29 12:09:00,
2013-10-29 08:10:00,48.6,42.3,30.34,NE,40,0.0,4.0,79,0.00,,,0.00,meteohub,2013-10-29 12:10:00,
2013-10-29 08:11:00,48.6,42.6,30.33,NNE,17,2.0,4.0,80,0.00,,,0.00,meteohub,2013-10-29 12:11:00,
2013-10-29 08:12:00,48.6,42.6,30.33,NNE,17,2.0,4.0,80,0.00,,,0.00,meteohub,2013-10-29 12:12:00,
2013-10-29 08:13:00,48.7,42.8,30.33,NE,44,1.0,4.0,80,0.00,,,0.00,meteohub,2013-10-29 12:13:00,
2013-10-29 08:14:00,48.7,42.8,30.33,NE,44,2.0,4.0,80,0.00,,,0.00,meteohub,2013-10-29 12:14:00,
2013-10-29 08:16:00,48.9,43.3,30.33,NNE,27,2.0,4.0,81,0.00,,,0.00,meteohub,2013-10-29 12:16:00,
2013-10-29 08:17:00,49.1,43.5,30.33,NE,36,6.0,6.0,81,0.00,,,0.00,meteohub,2013-10-29 12:17:00,
2013-10-29 08:18:00,49.5,44.2,30.33,NNE,30,6.0,6.0,82,0.00,,,0.00,meteohub,2013-10-29 12:18:00,
2013-10-29 08:21:00,50.9,46.2,30.33,NE,50,9.0,9.0,84,0.00,,,0.00,meteohub,2013-10-29 12:21:00,
2013-10-29 08:22:00,52.2,47.8,30.33,ENE,65,6.0,9.0,85,0.00,,,0.00,meteohub,2013-10-29 12:22:00,
2013-10-29 08:23:00,52.5,47.8,30.33,ENE,61,4.0,9.0,84,0.00,,,0.00,meteohub,2013-10-29 12:23:00,
2013-10-29 08:24:00,53.4,48.4,30.33,ENE,69,11.0,11.0,83,0.00,,,0.00,meteohub,2013-10-29 12:24:00,
2013-10-29 08:26:00,54.0,48.6,30.33,NE,50,10.0,13.0,82,0.00,,,0.00,meteohub,2013-10-29 12:26:00,
2013-10-29 08:27:00,54.3,48.6,30.33,ENE,74,10.0,13.0,81,0.00,,,0.00,meteohub,2013-10-29 12:27:00,
2013-10-29 08:28:00,54.9,48.7,30.34,ENE,59,9.0,13.0,80,0.00,,,0.00,meteohub,2013-10-29 12:28:00,
2013-10-29 08:30:00,55.2,48.7,30.34,ENE,67,8.0,13.0,79,0.00,,,0.00,meteohub,2013-10-29 12:30:00,
2013-10-29 08:31:00,55.4,48.9,30.33,NE,40,7.0,14.0,79,0.00,,,0.00,meteohub,2013-10-29 12:31:00,
2013-10-29 08:32:00,55.6,49.1,30.33,NE,44,6.0,14.0,79,0.00,,,0.00,meteohub,2013-10-29 12:32:00,
2013-10-29 08:33:00,55.8,48.9,30.33,East,88,7.0,14.0,78,0.00,,,0.00,meteohub,2013-10-29 12:33:00,
2013-10-29 08:36:00,55.9,49.1,30.33,NNE,29,5.0,16.0,78,0.00,,,0.00,meteohub,2013-10-29 12:36:00,
2013-10-29 08:37:00,55.9,49.1,30.33,East,85,5.0,16.0,78,0.00,,,0.00,meteohub,2013-10-29 12:37:00,
2013-10-29 08:38:00,56.1,49.3,30.34,ENE,69,9.0,16.0,78,0.00,,,0.00,meteohub,2013-10-29 12:38:00,
2013-10-29 08:39:00,56.1,48.9,30.34,ENE,57,9.0,16.0,77,0.00,,,0.00,meteohub,2013-10-29 12:39:00,
2013-10-29 08:41:00,56.1,48.9,30.34,ENE,71,11.0,16.0,77,0.00,,,0.00,meteohub,2013-10-29 12:41:00,
2013-10-29 08:42:00,56.1,48.7,30.33,ENE,60,11.0,16.0,76,0.00,,,0.00,meteohub,2013-10-29 12:42:00,
2013-10-29 08:43:00,56.1,48.9,30.34,ENE,63,9.0,16.0,77,0.00,,,0.00,meteohub,2013-10-29 12:43:00,
2013-10-29 08:44:00,56.1,48.7,30.34,ENE,61,9.0,16.0,76,0.00,,,0.00,meteohub,2013-10-29 12:44:00,
2013-10-29 08:46:00,56.3,49.1,30.34,ENE,77,8.0,16.0,77,0.00,,,0.00,meteohub,2013-10-29 12:46:00,
2013-10-29 08:48:00,56.5,49.3,30.34,East,79,10.0,16.0,77,0.00,,,0.00,meteohub,2013-10-29 12:48:00,
2013-10-29 08:49:00,56.5,48.9,30.34,ENE,76,11.0,16.0,76,0.00,,,0.00,meteohub,2013-10-29 12:49:00,
2013-10-29 08:50:00,56.5,48.9,30.34,ENE,65,6.0,16.0,76,0.00,,,0.00,meteohub,2013-10-29 12:50:00,
2013-10-29 08:51:00,56.5,48.9,30.34,ENE,63,6.0,15.0,76,0.00,,,0.00,meteohub,2013-10-29 12:51:00,
2013-10-29 08:53:00,56.5,48.9,30.34,NNE,19,7.0,15.0,76,0.00,,,0.00,meteohub,2013-10-29 12:53:00,
2013-10-29 08:54:00,56.5,48.9,30.34,ENE,70,11.0,15.0,76,0.00,,,0.00,meteohub,2013-10-29 12:54:00,
2013-10-29 08:55:00,56.5,48.9,30.34,NE,45,5.0,15.0,76,0.00,,,0.00,meteohub,2013-10-29 12:55:00,
2013-10-29 08:56:00,56.5,48.9,30.34,NE,56,5.0,15.0,76,0.00,,,0.00,meteohub,2013-10-29 12:56:00,
2013-10-29 08:58:00,56.7,49.1,30.34,ENE,67,8.0,15.0,76,0.00,,,0.00,meteohub,2013-10-29 12:58:00,
2013-10-29 08:59:00,56.7,49.1,30.34,ENE,66,8.0,15.0,76,0.00,,,0.00,meteohub,2013-10-29 12:59:00,
2013-10-29 09:00:00,56.7,49.1,30.34,NE,51,7.0,15.0,76,0.00,,,0.00,meteohub,2013-10-29 13:00:00,
2013-10-29 09:01:00,56.7,49.1,30.34,ENE,77,5.0,14.0,76,0.00,,,0.00,meteohub,2013-10-29 13:01:00,
2013-10-29 09:03:00,56.8,49.3,30.34,NNE,19,4.0,14.0,76,0.00,,,0.00,meteohub,2013-10-29 13:03:00,
2013-10-29 09:04:00,56.7,49.1,30.34,ENE,76,7.0,14.0,76,0.00,,,0.00,meteohub,2013-10-29 13:04:00,
2013-10-29 09:05:00,56.8,49.3,30.34,ENE,74,9.0,14.0,76,0.00,,,0.00,meteohub,2013-10-29 13:05:00,
2013-10-29 09:06:00,56.8,49.3,30.34,ENE,61,8.0,14.0,76,0.00,,,0.00,meteohub,2013-10-29 13:06:00,
2013-10-29 09:07:00,56.8,49.3,30.34,ENE,63,11.0,14.0,76,0.00,,,0.00,meteohub,2013-10-29 13:07:00,
2013-10-29 09:08:00,56.8,48.9,30.34,NE,51,5.0,14.0,75,0.00,,,0.00,meteohub,2013-10-29 13:08:00,
2013-10-29 09:10:00,56.8,49.3,30.34,NE,38,9.0,13.0,76,0.00,,,0.00,meteohub,2013-10-29 13:10:00,
2013-10-29 09:11:00,56.8,49.3,30.34,ENE,76,7.0,13.0,76,0.00,,,0.00,meteohub,2013-10-29 13:11:00,
2013-10-29 09:12:00,56.8,49.3,30.34,NNE,27,5.0,13.0,76,0.00,,,0.00,meteohub,2013-10-29 13:12:00,
2013-10-29 09:14:00,56.8,48.9,30.35,NE,38,5.0,13.0,75,0.00,,,0.00,meteohub,2013-10-29 13:14:00,
2013-10-29 09:15:00,57.0,49.5,30.35,ENE,65,12.0,13.0,76,0.00,,,0.00,meteohub,2013-10-29 13:15:00,
2013-10-29 09:16:00,57.0,49.1,30.35,NE,41,13.0,13.0,75,0.00,,,0.00,meteohub,2013-10-29 13:16:00,
2013-10-29 09:17:00,57.0,49.1,30.35,NNE,19,8.0,13.0,75,0.00,,,0.00,meteohub,2013-10-29 13:17:00,
2013-10-29 09:19:00,56.8,48.6,30.35,ENE,70,6.0,13.0,74,0.00,,,0.00,meteohub,2013-10-29 13:19:00,
2013-10-29 09:21:00,56.8,48.9,30.35,NE,46,3.0,14.0,75,0.00,,,0.00,meteohub,2013-10-29 13:21:00,
2013-10-29 09:22:00,56.8,48.9,30.35,NE,53,6.0,14.0,75,0.00,,,0.00,meteohub,2013-10-29 13:22:00,
2013-10-29 09:24:00,56.8,48.6,30.35,NE,39,12.0,14.0,74,0.00,,,0.00,meteohub,2013-10-29 13:24:00,
2013-10-29 09:26:00,56.8,48.6,30.35,NNE,24,6.0,14.0,74,0.00,,,0.00,meteohub,2013-10-29 13:26:00,
2013-10-29 09:27:00,56.8,48.6,30.35,NNE,29,9.0,14.0,74,0.00,,,0.00,meteohub,2013-10-29 13:27:00,
2013-10-29 09:29:00,57.0,48.7,30.35,ENE,65,9.0,14.0,74,0.00,,,0.00,meteohub,2013-10-29 13:29:00,
2013-10-29 09:31:00,57.0,48.7,30.35,NE,52,4.0,14.0,74,0.00,,,0.00,meteohub,2013-10-29 13:31:00,
2013-10-29 09:32:00,57.0,48.7,30.35,NE,55,10.0,14.0,74,0.00,,,0.00,meteohub,2013-10-29 13:32:00,
2013-10-29 09:34:00,57.0,48.7,30.35,ENE,57,7.0,14.0,74,0.00,,,0.00,meteohub,2013-10-29 13:34:00,
2013-10-29 09:35:00,57.0,48.7,30.35,ENE,59,11.0,14.0,74,0.00,,,0.00,meteohub,2013-10-29 13:35:00,
2013-10-29 09:37:00,57.2,48.9,30.35,ENE,58,7.0,13.0,74,0.00,,,0.00,meteohub,2013-10-29 13:37:00,
2013-10-29 09:39:00,57.2,48.9,30.35,NE,46,5.0,13.0,74,0.00,,,0.00,meteohub,2013-10-29 13:39:00,
2013-10-29 09:40:00,57.0,48.7,30.35,NE,40,7.0,13.0,74,0.00,,,0.00,meteohub,2013-10-29 13:40:00,
2013-10-29 09:41:00,57.0,48.7,30.35,NNE,23,6.0,14.0,74,0.00,,,0.00,meteohub,2013-10-29 13:41:00,
2013-10-29 09:42:00,57.2,48.9,30.35,East,87,8.0,14.0,74,0.00,,,0.00,meteohub,2013-10-29 13:42:00,
2013-10-29 09:43:00,57.4,49.1,30.35,ENE,62,10.0,14.0,74,0.00,,,0.00,meteohub,2013-10-29 13:43:00,
2013-10-29 09:45:00,57.0,48.7,30.35,East,81,8.0,14.0,74,0.00,,,0.00,meteohub,2013-10-29 13:45:00,
2013-10-29 09:46:00,57.0,48.7,30.35,ENE,65,10.0,14.0,74,0.00,,,0.00,meteohub,2013-10-29 13:46:00,
2013-10-29 09:47:00,57.0,48.7,30.35,ENE,58,6.0,14.0,74,0.00,,,0.00,meteohub,2013-10-29 13:47:00,
2013-10-29 09:48:00,57.0,48.7,30.35,NNE,32,10.0,14.0,74,0.00,,,0.00,meteohub,2013-10-29 13:48:00,
2013-10-29 09:49:00,57.0,48.7,30.35,East,88,10.0,14.0,74,0.00,,,0.00,meteohub,2013-10-29 13:49:00,
2013-10-29 09:51:00,57.0,48.7,30.35,East,86,5.0,14.0,74,0.00,,,0.00,meteohub,2013-10-29 13:51:00,
2013-10-29 09:52:00,57.2,48.9,30.35,NE,36,4.0,14.0,74,0.00,,,0.00,meteohub,2013-10-29 13:52:00,
2013-10-29 09:54:00,57.4,49.5,30.35,ENE,76,4.0,14.0,75,0.00,,,0.00,meteohub,2013-10-29 13:54:00,
2013-10-29 09:56:00,57.4,49.1,30.35,ENE,60,6.0,13.0,74,0.00,,,0.00,meteohub,2013-10-29 13:56:00,
2013-10-29 09:57:00,57.4,49.1,30.35,ENE,71,10.0,13.0,74,0.00,,,0.00,meteohub,2013-10-29 13:57:00,
2013-10-29 09:59:00,57.4,48.7,30.35,ENE,63,6.0,13.0,73,0.00,,,0.00,meteohub,2013-10-29 13:59:00,
2013-10-29 10:00:00,57.4,48.7,30.35,NNE,26,10.0,13.0,73,0.00,,,0.00,meteohub,2013-10-29 14:00:00,
2013-10-29 10:01:00,57.4,48.7,30.35,East,90,8.0,13.0,73,0.00,,,0.00,meteohub,2013-10-29 14:01:00,
2013-10-29 10:02:00,57.4,48.7,30.35,NE,38,7.0,13.0,73,0.00,,,0.00,meteohub,2013-10-29 14:02:00,
2013-10-29 10:03:00,57.4,48.7,30.35,ENE,63,5.0,13.0,73,0.00,,,0.00,meteohub,2013-10-29 14:03:00,
2013-10-29 10:04:00,57.4,48.7,30.35,NNE,31,6.0,13.0,73,0.00,,,0.00,meteohub,2013-10-29 14:04:00,
2013-10-29 10:06:00,57.4,48.7,30.35,ENE,75,11.0,15.0,73,0.00,,,0.00,meteohub,2013-10-29 14:06:00,
2013-10-29 10:08:00,57.4,48.7,30.35,NE,55,11.0,15.0,73,0.00,,,0.00,meteohub,2013-10-29 14:08:00,
2013-10-29 10:09:00,57.4,48.7,30.35,NE,51,6.0,15.0,73,0.00,,,0.00,meteohub,2013-10-29 14:09:00,
2013-10-29 10:11:00,57.4,48.7,30.35,NE,56,6.0,15.0,73,0.00,,,0.00,meteohub,2013-10-29 14:11:00,
2013-10-29 10:13:00,57.6,48.9,30.35,ENE,78,7.0,15.0,73,0.00,,,0.00,meteohub,2013-10-29 14:13:00,
2013-10-29 10:14:00,57.6,48.9,30.35,ENE,64,10.0,15.0,73,0.00,,,0.00,meteohub,2013-10-29 14:14:00,
2013-10-29 10:15:00,57.6,48.6,30.35,ENE,67,4.0,15.0,72,0.00,,,0.00,meteohub,2013-10-29 14:15:00,
2013-10-29 10:16:00,57.6,48.6,30.35,ENE,72,9.0,13.0,72,0.00,,,0.00,meteohub,2013-10-29 14:16:00,
2013-10-29 10:17:00,57.6,48.6,30.35,ENE,75,7.0,13.0,72,0.00,,,0.00,meteohub,2013-10-29 14:17:00,
2013-10-29 10:19:00,57.6,48.9,30.35,NNE,24,6.0,13.0,73,0.00,,,0.00,meteohub,2013-10-29 14:19:00,
2013-10-29 10:20:00,57.7,49.1,30.35,ENE,78,4.0,13.0,73,0.00,,,0.00,meteohub,2013-10-29 14:20:00,
2013-10-29 10:21:00,57.9,49.3,30.35,North,5,6.0,13.0,73,0.00,,,0.00,meteohub,2013-10-29 14:21:00,
2013-10-29 10:23:00,57.9,48.9,30.35,East,79,9.0,13.0,72,0.00,,,0.00,meteohub,2013-10-29 14:23:00,
2013-10-29 10:25:00,57.9,48.6,30.35,East,86,7.0,13.0,71,0.00,,,0.00,meteohub,2013-10-29 14:25:00,
2013-10-29 10:26:00,57.9,48.6,30.35,ENE,59,10.0,12.0,71,0.00,,,0.00,meteohub,2013-10-29 14:26:00,
2013-10-29 10:27:00,57.9,48.6,30.35,ENE,61,8.0,12.0,71,0.00,,,0.00,meteohub,2013-10-29 14:27:00,
2013-10-29 10:29:00,57.9,48.6,30.35,NE,55,12.0,12.0,71,0.00,,,0.00,meteohub,2013-10-29 14:29:00,
2013-10-29 10:30:00,57.9,48.2,30.35,NE,40,6.0,12.0,70,0.00,,,0.00,meteohub,2013-10-29 14:30:00,
2013-10-29 10:32:00,57.9,48.2,30.35,ENE,57,6.0,14.0,70,0.00,,,0.00,meteohub,2013-10-29 14:32:00,
2013-10-29 10:34:00,58.3,48.9,30.35,NE,48,5.0,14.0,71,0.00,,,0.00,meteohub,2013-10-29 14:34:00,
2013-10-29 10:35:00,58.3,48.6,30.35,ENE,65,3.0,14.0,70,0.00,,,0.00,meteohub,2013-10-29 14:35:00,
2013-10-29 10:36:00,58.1,48.4,30.35,NE,35,4.0,14.0,70,0.00,,,0.00,meteohub,2013-10-29 14:36:00,
2013-10-29 10:37:00,58.1,48.7,30.35,NE,50,3.0,14.0,71,0.00,,,0.00,meteohub,2013-10-29 14:37:00,
2013-10-29 10:40:00,57.9,48.2,30.35,NE,42,10.0,13.0,70,0.00,,,0.00,meteohub,2013-10-29 14:40:00,
2013-10-29 10:41:00,57.9,48.2,30.35,NE,40,4.0,13.0,70,0.00,,,0.00,meteohub,2013-10-29 14:41:00,
2013-10-29 10:42:00,57.9,48.6,30.35,NNE,26,6.0,13.0,71,0.00,,,0.00,meteohub,2013-10-29 14:42:00,
2013-10-29 10:43:00,57.9,48.6,30.35,NNE,22,5.0,13.0,71,0.00,,,0.00,meteohub,2013-10-29 14:43:00,
2013-10-29 10:45:00,58.3,48.6,30.35,NE,52,4.0,12.0,70,0.00,,,0.00,meteohub,2013-10-29 14:45:00,
2013-10-29 10:46:00,58.1,48.4,30.35,NE,46,9.0,12.0,70,0.00,,,0.00,meteohub,2013-10-29 14:46:00,
2013-10-29 10:47:00,58.3,48.6,30.35,NNE,24,6.0,12.0,70,0.00,,,0.00,meteohub,2013-10-29 14:47:00,
2013-10-29 10:48:00,58.3,48.6,30.35,NE,55,2.0,12.0,70,0.00,,,0.00,meteohub,2013-10-29 14:48:00,
2013-10-29 10:51:00,58.5,48.4,30.35,NNE,29,8.0,12.0,69,0.00,,,0.00,meteohub,2013-10-29 14:51:00,
2013-10-29 10:53:00,58.5,48.4,30.35,NNE,18,7.0,12.0,69,0.00,,,0.00,meteohub,2013-10-29 14:53:00,
2013-10-29 10:56:00,58.5,48.4,30.35,NE,34,5.0,11.0,69,0.00,,,0.00,meteohub,2013-10-29 14:56:00,
2013-10-29 10:58:00,58.5,48.4,30.35,NE,34,4.0,11.0,69,0.00,,,0.00,meteohub,2013-10-29 14:58:00,
2013-10-29 10:59:00,58.6,48.6,30.35,NNE,22,6.0,11.0,69,0.00,,,0.00,meteohub,2013-10-29 14:59:00,
2013-10-29 11:02:00,58.6,48.2,30.35,NE,50,6.0,11.0,68,0.00,,,0.00,meteohub,2013-10-29 15:02:00,
2013-10-29 11:03:00,58.5,48.0,30.35,NE,54,4.0,11.0,68,0.00,,,0.00,meteohub,2013-10-29 15:03:00,
2013-10-29 11:04:00,58.5,48.0,30.35,NE,38,7.0,11.0,68,0.00,,,0.00,meteohub,2013-10-29 15:04:00,
2013-10-29 11:05:00,58.5,48.4,30.35,ENE,62,6.0,11.0,69,0.00,,,0.00,meteohub,2013-10-29 15:05:00,
2013-10-29 11:07:00,58.3,48.2,30.35,ENE,61,5.0,11.0,69,0.00,,,0.00,meteohub,2013-10-29 15:07:00,
2013-10-29 11:09:00,58.3,48.2,30.35,NNE,19,5.0,11.0,69,0.00,,,0.00,meteohub,2013-10-29 15:09:00,
2013-10-29 11:10:00,57.9,47.5,30.35,ENE,71,10.0,12.0,68,0.00,,,0.00,meteohub,2013-10-29 15:10:00,
2013-10-29 11:12:00,57.7,47.3,30.35,NE,55,11.0,12.0,68,0.00,,,0.00,meteohub,2013-10-29 15:12:00,
2013-10-29 11:13:00,57.7,47.7,30.35,NE,56,12.0,12.0,69,0.00,,,0.00,meteohub,2013-10-29 15:13:00,
2013-10-29 11:14:00,57.6,47.5,30.35,NNE,16,7.0,12.0,69,0.00,,,0.00,meteohub,2013-10-29 15:14:00,
2013-10-29 11:15:00,57.6,47.8,30.35,ENE,65,8.0,13.0,70,0.00,,,0.00,meteohub,2013-10-29 15:15:00,
2013-10-29 11:16:00,57.6,47.8,30.35,East,81,5.0,13.0,70,0.00,,,0.00,meteohub,2013-10-29 15:16:00,
2013-10-29 11:18:00,57.7,48.0,30.35,NE,35,5.0,13.0,70,0.00,,,0.00,meteohub,2013-10-29 15:18:00,
2013-10-29 11:19:00,57.7,47.7,30.35,NE,44,4.0,13.0,69,0.00,,,0.00,meteohub,2013-10-29 15:19:00,
2013-10-29 11:20:00,57.9,47.8,30.35,NE,34,8.0,13.0,69,0.00,,,0.00,meteohub,2013-10-29 15:20:00,
2013-10-29 11:21:00,57.9,47.5,30.35,NNE,15,8.0,13.0,68,0.00,,,0.00,meteohub,2013-10-29 15:21:00,
2013-10-29 11:23:00,58.3,47.8,30.35,NNE,24,6.0,13.0,68,0.00,,,0.00,meteohub,2013-10-29 15:23:00,
2013-10-29 11:24:00,58.5,47.5,30.35,ENE,65,6.0,13.0,67,0.00,,,0.00,meteohub,2013-10-29 15:24:00,
2013-10-29 11:25:00,58.6,47.7,30.35,NNE,23,9.0,13.0,67,0.00,,,0.00,meteohub,2013-10-29 15:25:00,
2013-10-29 11:26:00,58.6,47.3,30.35,NE,34,6.0,13.0,66,0.00,,,0.00,meteohub,2013-10-29 15:26:00,
2013-10-29 11:28:00,58.8,47.5,30.35,NNE,23,9.0,13.0,66,0.00,,,0.00,meteohub,2013-10-29 15:28:00,
2013-10-29 11:29:00,58.8,47.1,30.35,NE,51,7.0,13.0,65,0.00,,,0.00,meteohub,2013-10-29 15:29:00,
2013-10-29 11:30:00,58.8,47.1,30.35,NNE,23,5.0,13.0,65,0.00,,,0.00,meteohub,2013-10-29 15:30:00,
2013-10-29 11:31:00,59.0,47.7,30.35,ENE,57,5.0,11.0,66,0.00,,,0.00,meteohub,2013-10-29 15:31:00,
2013-10-29 11:34:00,59.2,47.5,30.35,ENE,74,10.0,11.0,65,0.00,,,0.00,meteohub,2013-10-29 15:34:00,
2013-10-29 11:35:00,58.8,47.1,30.35,North,0,4.0,11.0,65,0.00,,,0.00,meteohub,2013-10-29 15:35:00,
2013-10-29 11:36:00,59.0,47.3,30.35,NNE,28,6.0,11.0,65,0.00,,,0.00,meteohub,2013-10-29 15:36:00,
2013-10-29 11:37:00,59.0,47.3,30.35,North,11,8.0,11.0,65,0.00,,,0.00,meteohub,2013-10-29 15:37:00,
2013-10-29 11:39:00,58.8,47.1,30.35,ESE,103,8.0,11.0,65,0.00,,,0.00,meteohub,2013-10-29 15:39:00,
2013-10-29 11:40:00,58.6,46.9,30.35,North,11,10.0,11.0,65,0.00,,,0.00,meteohub,2013-10-29 15:40:00,
2013-10-29 11:41:00,58.6,46.9,30.35,NNE,28,10.0,11.0,65,0.00,,,0.00,meteohub,2013-10-29 15:41:00,
2013-10-29 11:42:00,58.6,46.6,30.35,NE,42,2.0,11.0,64,0.00,,,0.00,meteohub,2013-10-29 15:42:00,
2013-10-29 11:44:00,58.5,46.8,30.35,NE,51,9.0,11.0,65,0.00,,,0.00,meteohub,2013-10-29 15:44:00,
2013-10-29 11:45:00,58.5,46.4,30.35,NNE,19,5.0,13.0,64,0.00,,,0.00,meteohub,2013-10-29 15:45:00,
2013-10-29 11:46:00,58.5,46.4,30.35,NE,42,4.0,13.0,64,0.00,,,0.00,meteohub,2013-10-29 15:46:00,
2013-10-29 11:47:00,58.6,46.6,30.35,North,355,8.0,13.0,64,0.00,,,0.00,meteohub,2013-10-29 15:47:00,
2013-10-29 11:49:00,58.8,46.6,30.35,NE,44,10.0,13.0,64,0.00,,,0.00,meteohub,2013-10-29 15:49:00,
2013-10-29 11:51:00,58.8,46.6,30.36,NE,44,6.0,13.0,64,0.00,,,0.00,meteohub,2013-10-29 15:51:00,
2013-10-29 11:52:00,58.8,46.6,30.36,NE,42,6.0,13.0,64,0.00,,,0.00,meteohub,2013-10-29 15:52:00,
2013-10-29 11:54:00,58.6,46.6,30.36,NNE,26,8.0,13.0,64,0.00,,,0.00,meteohub,2013-10-29 15:54:00,
2013-10-29 11:55:00,58.6,46.6,30.36,NE,54,6.0,13.0,64,0.00,,,0.00,meteohub,2013-10-29 15:55:00,
2013-10-29 11:56:00,58.5,46.4,30.36,NE,54,5.0,13.0,64,0.00,,,0.00,meteohub,2013-10-29 15:56:00,
2013-10-29 11:57:00,58.5,46.4,30.36,NNE,28,5.0,13.0,64,0.00,,,0.00,meteohub,2013-10-29 15:57:00,
2013-10-29 11:59:00,58.5,46.8,30.36,ENE,59,2.0,13.0,65,0.00,,,0.00,meteohub,2013-10-29 15:59:00,
2013-10-29 12:00:00,58.5,46.8,30.36,NE,40,10.0,13.0,65,0.00,,,0.00,meteohub,2013-10-29 16:00:00,
2013-10-29 12:02:00,58.5,46.8,30.36,NNE,27,11.0,12.0,65,0.00,,,0.00,meteohub,2013-10-29 16:02:00,
2013-10-29 12:03:00,58.5,46.4,30.36,ENE,68,4.0,12.0,64,0.00,,,0.00,meteohub,2013-10-29 16:03:00,
2013-10-29 12:05:00,58.5,46.4,30.36,NNE,30,12.0,12.0,64,0.00,,,0.00,meteohub,2013-10-29 16:05:00,
2013-10-29 12:07:00,58.3,46.6,30.35,North,10,7.0,13.0,65,0.00,,,0.00,meteohub,2013-10-29 16:07:00,
2013-10-29 12:08:00,58.3,46.6,30.35,NNE,22,9.0,13.0,65,0.00,,,0.00,meteohub,2013-10-29 16:08:00,
2013-10-29 12:10:00,57.9,46.2,30.36,ENE,68,4.0,17.0,65,0.00,,,0.00,meteohub,2013-10-29 16:10:00,
2013-10-29 12:12:00,58.1,47.1,30.36,NE,42,5.0,17.0,67,0.00,,,0.00,meteohub,2013-10-29 16:12:00,
2013-10-29 12:13:00,58.1,47.7,30.35,North,11,5.0,17.0,68,0.00,,,0.00,meteohub,2013-10-29 16:13:00,
2013-10-29 12:14:00,58.3,48.2,30.35,NNE,16,12.0,17.0,69,0.00,,,0.00,meteohub,2013-10-29 16:14:00,
2013-10-29 12:15:00,58.3,48.6,30.35,NNE,22,3.0,17.0,70,0.00,,,0.00,meteohub,2013-10-29 16:15:00,
2013-10-29 12:16:00,58.3,48.9,30.35,NE,38,6.0,17.0,71,0.00,,,0.00,meteohub,2013-10-29 16:16:00,
2013-10-29 12:17:00,58.3,49.3,30.35,NNE,13,4.0,17.0,72,0.00,,,0.00,meteohub,2013-10-29 16:17:00,
2013-10-29 12:18:00,58.3,49.3,30.35,NE,51,9.0,17.0,72,0.00,,,0.00,meteohub,2013-10-29 16:18:00,
2013-10-29 12:19:00,58.5,49.8,30.35,NNE,30,6.0,17.0,73,0.00,,,0.00,meteohub,2013-10-29 16:19:00,
2013-10-29 12:20:00,58.5,49.8,30.35,North,9,7.0,17.0,73,0.00,,,0.00,meteohub,2013-10-29 16:20:00,
2013-10-29 12:21:00,58.5,49.5,30.35,NNE,33,11.0,13.0,72,0.00,,,0.00,meteohub,2013-10-29 16:21:00,
2013-10-29 12:23:00,58.3,49.3,30.35,East,83,5.0,13.0,72,0.00,,,0.00,meteohub,2013-10-29 16:23:00,
2013-10-29 12:25:00,58.1,49.1,30.35,NNE,17,7.0,13.0,72,0.00,,,0.00,meteohub,2013-10-29 16:25:00,
2013-10-29 12:26:00,57.9,49.3,30.35,North,11,5.0,13.0,73,0.00,,,0.00,meteohub,2013-10-29 16:26:00,
2013-10-29 12:27:00,57.9,49.3,30.35,NNE,23,10.0,13.0,73,0.00,,,0.00,meteohub,2013-10-29 16:27:00,
2013-10-29 12:28:00,57.9,49.3,30.35,NNE,18,8.0,13.0,73,0.00,,,0.00,meteohub,2013-10-29 16:28:00,
2013-10-29 12:30:00,57.9,49.3,30.35,ENE,64,11.0,14.0,73,0.00,,,0.00,meteohub,2013-10-29 16:30:00,
2013-10-29 12:31:00,57.7,49.1,30.35,ENE,74,11.0,14.0,73,0.00,,,0.00,meteohub,2013-10-29 16:31:00,
2013-10-29 12:32:00,57.6,48.9,30.35,NNE,28,9.0,14.0,73,0.00,,,0.00,meteohub,2013-10-29 16:32:00,
2013-10-29 12:34:00,57.6,48.9,30.35,NE,37,7.0,14.0,73,0.00,,,0.00,meteohub,2013-10-29 16:34:00,
2013-10-29 12:35:00,57.6,49.3,30.35,NNE,26,6.0,15.0,74,0.00,,,0.00,meteohub,2013-10-29 16:35:00,
2013-10-29 12:37:00,57.6,49.3,30.35,NE,48,9.0,15.0,74,0.00,,,0.00,meteohub,2013-10-29 16:37:00,
2013-10-29 12:38:00,57.6,49.3,30.34,NNE,19,9.0,15.0,74,0.00,,,0.00,meteohub,2013-10-29 16:38:00,
2013-10-29 12:39:00,57.7,49.5,30.34,NNE,26,12.0,15.0,74,0.00,,,0.00,meteohub,2013-10-29 16:39:00,
2013-10-29 12:40:00,57.6,49.3,30.34,NNE,19,7.0,15.0,74,0.00,,,0.00,meteohub,2013-10-29 16:40:00,
2013-10-29 12:41:00,57.7,49.5,30.34,NNE,22,9.0,15.0,74,0.00,,,0.00,meteohub,2013-10-29 16:41:00,
2013-10-29 12:42:00,57.6,49.3,30.34,NE,36,11.0,15.0,74,0.00,,,0.00,meteohub,2013-10-29 16:42:00,
2013-10-29 12:43:00,57.6,49.3,30.35,NNE,25,6.0,15.0,74,0.00,,,0.00,meteohub,2013-10-29 16:43:00,
2013-10-29 12:44:00,57.4,49.1,30.35,NNE,17,10.0,15.0,74,0.00,,,0.00,meteohub,2013-10-29 16:44:00,
2013-10-29 12:45:00,57.4,49.5,30.35,NNE,26,13.0,16.0,75,0.00,,,0.00,meteohub,2013-10-29 16:45:00,
2013-10-29 12:46:00,57.4,49.5,30.35,NNE,12,9.0,16.0,75,0.00,,,0.00,meteohub,2013-10-29 16:46:00,
2013-10-29 12:47:00,57.4,49.5,30.35,NE,53,7.0,16.0,75,0.00,,,0.00,meteohub,2013-10-29 16:47:00,
2013-10-29 12:48:00,57.4,49.1,30.35,NNE,19,5.0,16.0,74,0.00,,,0.00,meteohub,2013-10-29 16:48:00,
2013-10-29 12:50:00,57.4,49.5,30.34,East,80,4.0,16.0,75,0.00,,,0.00,meteohub,2013-10-29 16:50:00,
2013-10-29 12:51:00,57.6,49.6,30.34,NE,36,11.0,16.0,75,0.00,,,0.00,meteohub,2013-10-29 16:51:00,
2013-10-29 12:53:00,57.6,49.3,30.35,NE,34,10.0,16.0,74,0.00,,,0.00,meteohub,2013-10-29 16:53:00,
2013-10-29 12:54:00,57.6,49.3,30.34,NE,44,4.0,16.0,74,0.00,,,0.00,meteohub,2013-10-29 16:54:00,
2013-10-29 12:55:00,57.6,49.6,30.34,NNE,23,6.0,16.0,75,0.00,,,0.00,meteohub,2013-10-29 16:55:00,
2013-10-29 12:56:00,57.4,49.1,30.34,NE,36,9.0,16.0,74,0.00,,,0.00,meteohub,2013-10-29 16:56:00,
2013-10-29 12:57:00,57.4,49.5,30.34,NE,34,19.0,19.0,75,0.00,,,0.00,meteohub,2013-10-29 16:57:00,
2013-10-29 12:58:00,57.4,49.1,30.34,NNE,32,10.0,16.0,74,0.00,,,0.00,meteohub,2013-10-29 16:58:00,
2013-10-29 13:00:00,57.0,49.1,30.34,NNE,22,10.0,16.0,75,0.00,,,0.00,meteohub,2013-10-29 17:00:00,
2013-10-29 13:01:00,57.0,49.1,30.34,NNE,16,7.0,19.0,75,0.00,,,0.00,meteohub,2013-10-29 17:01:00,
2013-10-29 13:02:00,57.0,49.1,30.34,NE,44,6.0,19.0,75,0.00,,,0.00,meteohub,2013-10-29 17:02:00,
2013-10-29 13:03:00,56.8,48.9,30.34,NNE,32,10.0,19.0,75,0.00,,,0.00,meteohub,2013-10-29 17:03:00,
2013-10-29 13:05:00,56.8,48.9,30.34,NNE,22,3.0,19.0,75,0.00,,,0.00,meteohub,2013-10-29 17:05:00,
2013-10-29 13:06:00,57.0,49.5,30.34,NNE,24,12.0,19.0,76,0.00,,,0.00,meteohub,2013-10-29 17:06:00,
2013-10-29 13:08:00,57.2,49.3,30.34,NE,41,9.0,19.0,75,0.00,,,0.00,meteohub,2013-10-29 17:08:00,
2013-10-29 13:10:00,57.2,49.3,30.33,NNE,17,9.0,19.0,75,0.00,,,0.00,meteohub,2013-10-29 17:10:00,
2013-10-29 13:11:00,57.0,49.1,30.33,NNE,16,10.0,19.0,75,0.00,,,0.00,meteohub,2013-10-29 17:11:00,
2013-10-29 13:12:00,57.0,49.1,30.33,NNE,30,11.0,19.0,75,0.00,,,0.00,meteohub,2013-10-29 17:12:00,
2013-10-29 13:13:00,57.0,49.1,30.33,NNE,30,9.0,19.0,75,0.00,,,0.00,meteohub,2013-10-29 17:13:00,
2013-10-29 13:15:00,57.0,49.1,30.33,ENE,74,9.0,19.0,75,0.00,,,0.00,meteohub,2013-10-29 17:15:00,
2013-10-29 13:16:00,56.8,48.9,30.33,North,355,8.0,17.0,75,0.00,,,0.00,meteohub,2013-10-29 17:16:00,
2013-10-29 13:17:00,56.8,48.9,30.33,NNE,24,10.0,17.0,75,0.00,,,0.00,meteohub,2013-10-29 17:17:00,
2013-10-29 13:18:00,56.8,48.9,30.33,NNE,26,11.0,17.0,75,0.00,,,0.00,meteohub,2013-10-29 17:18:00,
2013-10-29 13:20:00,56.8,48.9,30.33,NNE,17,11.0,17.0,75,0.00,,,0.00,meteohub,2013-10-29 17:20:00,
2013-10-29 13:21:00,56.8,49.3,30.33,NE,40,6.0,17.0,76,0.00,,,0.00,meteohub,2013-10-29 17:21:00,
2013-10-29 13:22:00,56.8,49.3,30.33,NE,45,9.0,17.0,76,0.00,,,0.00,meteohub,2013-10-29 17:22:00,
2013-10-29 13:24:00,57.0,49.5,30.33,ENE,71,10.0,17.0,76,0.00,,,0.00,meteohub,2013-10-29 17:24:00,
2013-10-29 13:25:00,57.2,49.3,30.33,NE,43,5.0,17.0,75,0.00,,,0.00,meteohub,2013-10-29 17:25:00,
2013-10-29 13:27:00,57.2,49.3,30.33,NE,44,6.0,17.0,75,0.00,,,0.00,meteohub,2013-10-29 17:27:00,
2013-10-29 13:29:00,57.4,49.5,30.33,NNE,24,10.0,17.0,75,0.00,,,0.00,meteohub,2013-10-29 17:29:00,
2013-10-29 13:30:00,57.4,49.5,30.33,NNE,30,11.0,17.0,75,0.00,,,0.00,meteohub,2013-10-29 17:30:00,
2013-10-29 13:32:00,57.0,48.7,30.33,ENE,76,8.0,15.0,74,0.00,,,0.00,meteohub,2013-10-29 17:32:00,
2013-10-29 13:34:00,57.0,49.1,30.33,NNE,32,10.0,15.0,75,0.00,,,0.00,meteohub,2013-10-29 17:34:00,
2013-10-29 13:35:00,57.0,49.1,30.33,NE,35,12.0,15.0,75,0.00,,,0.00,meteohub,2013-10-29 17:35:00,
2013-10-29 13:36:00,57.2,49.3,30.33,NE,42,9.0,15.0,75,0.00,,,0.00,meteohub,2013-10-29 17:36:00,
2013-10-29 13:37:00,57.2,49.3,30.33,NNE,26,10.0,15.0,75,0.00,,,0.00,meteohub,2013-10-29 17:37:00,
2013-10-29 13:38:00,57.2,49.3,30.33,NNE,23,8.0,15.0,75,0.00,,,0.00,meteohub,2013-10-29 17:38:00,
2013-10-29 13:39:00,57.0,49.1,30.33,NE,53,9.0,15.0,75,0.00,,,0.00,meteohub,2013-10-29 17:39:00,
2013-10-29 13:40:00,57.2,49.3,30.33,ENE,63,12.0,15.0,75,0.00,,,0.00,meteohub,2013-10-29 17:40:00,
2013-10-29 13:42:00,57.2,49.3,30.33,NE,44,7.0,15.0,75,0.00,,,0.00,meteohub,2013-10-29 17:42:00,
2013-10-29 13:43:00,57.2,49.3,30.33,NE,34,12.0,15.0,75,0.00,,,0.00,meteohub,2013-10-29 17:43:00,
2013-10-29 13:44:00,57.2,48.9,30.33,ENE,69,10.0,15.0,74,0.00,,,0.00,meteohub,2013-10-29 17:44:00,
2013-10-29 13:45:00,57.0,48.7,30.33,North,0,8.0,15.0,74,0.00,,,0.00,meteohub,2013-10-29 17:45:00,
2013-10-29 13:47:00,57.0,49.1,30.32,NNE,13,8.0,15.0,75,0.00,,,0.00,meteohub,2013-10-29 17:47:00,
2013-10-29 13:48:00,57.0,49.1,30.32,NNE,23,4.0,15.0,75,0.00,,,0.00,meteohub,2013-10-29 17:48:00,
2013-10-29 13:49:00,57.0,49.1,30.32,NE,42,11.0,15.0,75,0.00,,,0.00,meteohub,2013-10-29 17:49:00,
2013-10-29 13:50:00,56.8,48.9,30.32,North,5,5.0,15.0,75,0.00,,,0.00,meteohub,2013-10-29 17:50:00,
2013-10-29 13:53:00,56.8,48.9,30.33,ENE,58,9.0,15.0,75,0.00,,,0.00,meteohub,2013-10-29 17:53:00,
2013-10-29 13:54:00,56.8,48.9,30.33,ENE,57,10.0,15.0,75,0.00,,,0.00,meteohub,2013-10-29 17:54:00,
2013-10-29 13:55:00,56.8,48.9,30.33,NNE,17,12.0,15.0,75,0.00,,,0.00,meteohub,2013-10-29 17:55:00,
2013-10-29 13:56:00,56.8,48.9,30.33,NE,38,11.0,16.0,75,0.00,,,0.00,meteohub,2013-10-29 17:56:00,
2013-10-29 13:58:00,56.7,48.7,30.33,NNE,17,8.0,16.0,75,0.00,,,0.00,meteohub,2013-10-29 17:58:00,
2013-10-29 13:59:00,56.7,49.1,30.33,East,80,8.0,16.0,76,0.00,,,0.00,meteohub,2013-10-29 17:59:00,
2013-10-29 14:00:00,56.7,49.1,30.33,NNE,19,7.0,16.0,76,0.00,,,0.00,meteohub,2013-10-29 18:00:00,
2013-10-29 14:01:00,56.7,49.1,30.33,NE,46,7.0,16.0,76,0.00,,,0.00,meteohub,2013-10-29 18:01:00,
2013-10-29 14:03:00,56.8,48.9,30.33,NNE,30,10.0,16.0,75,0.00,,,0.00,meteohub,2013-10-29 18:03:00,
2013-10-29 14:04:00,56.7,48.7,30.33,NE,36,10.0,16.0,75,0.00,,,0.00,meteohub,2013-10-29 18:04:00,
2013-10-29 14:05:00,56.7,48.7,30.33,NE,42,11.0,16.0,75,0.00,,,0.00,meteohub,2013-10-29 18:05:00,
2013-10-29 14:06:00,56.7,48.7,30.33,NNE,16,8.0,16.0,75,0.00,,,0.00,meteohub,2013-10-29 18:06:00,
2013-10-29 14:07:00,56.7,48.7,30.33,NNE,30,5.0,16.0,75,0.00,,,0.00,meteohub,2013-10-29 18:07:00,
2013-10-29 14:08:00,56.7,48.7,30.33,NNE,13,7.0,16.0,75,0.00,,,0.00,meteohub,2013-10-29 18:08:00,
2013-10-29 14:10:00,56.8,48.9,30.33,NNE,24,3.0,15.0,75,0.00,,,0.00,meteohub,2013-10-29 18:10:00,
2013-10-29 14:11:00,56.8,48.9,30.33,NE,42,4.0,15.0,75,0.00,,,0.00,meteohub,2013-10-29 18:11:00,
2013-10-29 14:12:00,56.8,49.3,30.33,NNE,27,10.0,15.0,76,0.00,,,0.00,meteohub,2013-10-29 18:12:00,
2013-10-29 14:13:00,56.8,48.9,30.33,NNE,28,6.0,15.0,75,0.00,,,0.00,meteohub,2013-10-29 18:13:00,
2013-10-29 14:14:00,56.8,48.9,30.33,ENE,75,7.0,15.0,75,0.00,,,0.00,meteohub,2013-10-29 18:14:00,
2013-10-29 14:16:00,56.8,48.9,30.33,NNE,32,10.0,15.0,75,0.00,,,0.00,meteohub,2013-10-29 18:16:00,
2013-10-29 14:17:00,56.8,48.9,30.33,North,355,8.0,15.0,75,0.00,,,0.00,meteohub,2013-10-29 18:17:00,
2013-10-29 14:18:00,56.8,48.9,30.33,NNE,13,10.0,15.0,75,0.00,,,0.00,meteohub,2013-10-29 18:18:00,
2013-10-29 14:21:00,56.7,48.7,30.33,NNE,25,6.0,14.0,75,0.00,,,0.00,meteohub,2013-10-29 18:21:00,
2013-10-29 14:22:00,56.7,49.1,30.33,NNE,32,9.0,14.0,76,0.00,,,0.00,meteohub,2013-10-29 18:22:00,
2013-10-29 14:23:00,56.7,49.1,30.32,NE,54,6.0,14.0,76,0.00,,,0.00,meteohub,2013-10-29 18:23:00,
2013-10-29 14:26:00,56.7,48.7,30.33,NNE,30,5.0,15.0,75,0.00,,,0.00,meteohub,2013-10-29 18:26:00,
2013-10-29 14:27:00,56.7,49.1,30.32,NE,45,11.0,15.0,76,0.00,,,0.00,meteohub,2013-10-29 18:27:00,
2013-10-29 14:28:00,56.7,48.7,30.32,ENE,66,12.0,15.0,75,0.00,,,0.00,meteohub,2013-10-29 18:28:00,
2013-10-29 14:31:00,56.5,48.7,30.32,NE,34,13.0,15.0,75,0.00,,,0.00,meteohub,2013-10-29 18:31:00,
2013-10-29 14:32:00,56.5,48.7,30.32,NNE,31,8.0,15.0,75,0.00,,,0.00,meteohub,2013-10-29 18:32:00,
2013-10-29 14:33:00,56.5,48.7,30.32,NE,40,11.0,15.0,75,0.00,,,0.00,meteohub,2013-10-29 18:33:00,
2013-10-29 14:34:00,56.5,48.7,30.32,North,5,6.0,15.0,75,0.00,,,0.00,meteohub,2013-10-29 18:34:00,
2013-10-29 14:36:00,56.5,48.7,30.32,NNE,19,9.0,16.0,75,0.00,,,0.00,meteohub,2013-10-29 18:36:00,
2013-10-29 14:37:00,56.5,48.7,30.32,NE,43,9.0,16.0,75,0.00,,,0.00,meteohub,2013-10-29 18:37:00,
2013-10-29 14:39:00,56.7,48.7,30.32,NE,36,7.0,16.0,75,0.00,,,0.00,meteohub,2013-10-29 18:39:00,
2013-10-29 14:40:00,56.7,48.7,30.32,NNW,331,6.0,16.0,75,0.00,,,0.00,meteohub,2013-10-29 18:40:00,
2013-10-29 14:42:00,56.7,48.7,30.32,NNE,29,14.0,17.0,75,0.00,,,0.00,meteohub,2013-10-29 18:42:00,
2013-10-29 14:43:00,56.7,48.7,30.32,NE,46,7.0,17.0,75,0.00,,,0.00,meteohub,2013-10-29 18:43:00,
2013-10-29 14:45:00,56.5,48.7,30.32,NNE,23,6.0,17.0,75,0.00,,,0.00,meteohub,2013-10-29 18:45:00,
2013-10-29 14:46:00,56.5,48.7,30.33,NNE,30,9.0,17.0,75,0.00,,,0.00,meteohub,2013-10-29 18:46:00,
2013-10-29 14:47:00,56.5,48.7,30.33,NNE,23,10.0,17.0,75,0.00,,,0.00,meteohub,2013-10-29 18:47:00,
2013-10-29 14:48:00,56.5,48.7,30.33,NE,40,7.0,17.0,75,0.00,,,0.00,meteohub,2013-10-29 18:48:00,
2013-10-29 14:50:00,56.5,48.7,30.33,NE,53,10.0,17.0,75,0.00,,,0.00,meteohub,2013-10-29 18:50:00,
2013-10-29 14:51:00,56.5,48.7,30.33,NNE,32,8.0,17.0,75,0.00,,,0.00,meteohub,2013-10-29 18:51:00,
2013-10-29 14:52:00,56.5,48.7,30.33,NE,47,7.0,17.0,75,0.00,,,0.00,meteohub,2013-10-29 18:52:00,
2013-10-29 14:53:00,56.5,48.7,30.33,NE,45,9.0,17.0,75,0.00,,,0.00,meteohub,2013-10-29 18:53:00,
2013-10-29 14:54:00,56.5,48.7,30.33,ENE,74,7.0,17.0,75,0.00,,,0.00,meteohub,2013-10-29 18:54:00,
2013-10-29 14:56:00,56.5,48.7,30.33,NE,56,6.0,16.0,75,0.00,,,0.00,meteohub,2013-10-29 18:56:00,
2013-10-29 14:57:00,56.5,48.7,30.33,NNE,26,9.0,16.0,75,0.00,,,0.00,meteohub,2013-10-29 18:57:00,
2013-10-29 14:58:00,56.5,48.7,30.33,NE,34,10.0,16.0,75,0.00,,,0.00,meteohub,2013-10-29 18:58:00,
2013-10-29 14:59:00,56.5,48.7,30.33,North,0,12.0,16.0,75,0.00,,,0.00,meteohub,2013-10-29 18:59:00,
2013-10-29 15:01:00,56.5,48.7,30.33,ENE,69,10.0,15.0,75,0.00,,,0.00,meteohub,2013-10-29 19:01:00,
2013-10-29 15:03:00,56.5,48.7,30.33,NE,49,7.0,15.0,75,0.00,,,0.00,meteohub,2013-10-29 19:03:00,
2013-10-29 15:04:00,56.3,48.6,30.33,NE,56,9.0,15.0,75,0.00,,,0.00,meteohub,2013-10-29 19:04:00,
2013-10-29 15:05:00,56.3,48.6,30.33,NNE,19,10.0,15.0,75,0.00,,,0.00,meteohub,2013-10-29 19:05:00,
2013-10-29 15:06:00,56.3,48.6,30.33,NE,49,5.0,15.0,75,0.00,,,0.00,meteohub,2013-10-29 19:06:00,
2013-10-29 15:07:00,56.3,48.6,30.33,North,0,8.0,15.0,75,0.00,,,0.00,meteohub,2013-10-29 19:07:00,
2013-10-29 15:08:00,56.5,48.9,30.33,NE,44,12.0,15.0,76,0.00,,,0.00,meteohub,2013-10-29 19:08:00,
2013-10-29 15:09:00,56.3,48.6,30.33,ENE,58,9.0,15.0,75,0.00,,,0.00,meteohub,2013-10-29 19:09:00,
2013-10-29 15:10:00,56.3,48.6,30.33,NE,56,7.0,15.0,75,0.00,,,0.00,meteohub,2013-10-29 19:10:00,
2013-10-29 15:12:00,56.3,48.6,30.33,NNE,26,6.0,15.0,75,0.00,,,0.00,meteohub,2013-10-29 19:12:00,
2013-10-29 15:13:00,56.5,48.7,30.33,NE,38,5.0,15.0,75,0.00,,,0.00,meteohub,2013-10-29 19:13:00,
2013-10-29 15:15:00,56.5,48.7,30.33,NNE,17,7.0,15.0,75,0.00,,,0.00,meteohub,2013-10-29 19:15:00,
2013-10-29 15:18:00,56.5,48.7,30.34,ENE,59,10.0,15.0,75,0.00,,,0.00,meteohub,2013-10-29 19:18:00,
2013-10-29 15:19:00,56.3,48.2,30.34,NNE,22,5.0,15.0,74,0.00,,,0.00,meteohub,2013-10-29 19:19:00,
2013-10-29 15:20:00,56.5,48.7,30.34,NNE,19,4.0,15.0,75,0.00,,,0.00,meteohub,2013-10-29 19:20:00,
2013-10-29 15:21:00,56.5,48.7,30.34,NE,54,9.0,14.0,75,0.00,,,0.00,meteohub,2013-10-29 19:21:00,
2013-10-29 15:23:00,56.5,48.7,30.34,NNE,22,10.0,14.0,75,0.00,,,0.00,meteohub,2013-10-29 19:23:00,
2013-10-29 15:24:00,56.3,48.6,30.34,ENE,59,5.0,14.0,75,0.00,,,0.00,meteohub,2013-10-29 19:24:00,
2013-10-29 15:25:00,56.3,48.6,30.34,ENE,65,8.0,14.0,75,0.00,,,0.00,meteohub,2013-10-29 19:25:00,
2013-10-29 15:26:00,56.1,48.4,30.34,ENE,59,10.0,13.0,75,0.00,,,0.00,meteohub,2013-10-29 19:26:00,
2013-10-29 15:27:00,56.1,48.4,30.34,NNE,24,10.0,13.0,75,0.00,,,0.00,meteohub,2013-10-29 19:27:00,
2013-10-29 15:28:00,55.9,48.2,30.34,NNE,27,6.0,13.0,75,0.00,,,0.00,meteohub,2013-10-29 19:28:00,
2013-10-29 15:29:00,55.9,48.2,30.34,NNE,26,6.0,13.0,75,0.00,,,0.00,meteohub,2013-10-29 19:29:00,
2013-10-29 15:30:00,55.9,48.6,30.34,ENE,62,8.0,15.0,76,0.00,,,0.00,meteohub,2013-10-29 19:30:00,
2013-10-29 15:31:00,55.9,48.6,30.34,NE,51,7.0,15.0,76,0.00,,,0.00,meteohub,2013-10-29 19:31:00,
2013-10-29 15:32:00,55.9,48.2,30.34,North,5,16.0,16.0,75,0.00,,,0.00,meteohub,2013-10-29 19:32:00,
2013-10-29 15:34:00,55.9,48.6,30.34,NE,34,5.0,15.0,76,0.00,,,0.00,meteohub,2013-10-29 19:34:00,
2013-10-29 15:35:00,55.9,48.6,30.34,NE,38,9.0,16.0,76,0.00,,,0.00,meteohub,2013-10-29 19:35:00,
2013-10-29 15:36:00,55.9,48.6,30.33,ENE,62,6.0,16.0,76,0.00,,,0.00,meteohub,2013-10-29 19:36:00,
2013-10-29 15:37:00,55.9,48.6,30.34,NE,45,14.0,16.0,76,0.00,,,0.00,meteohub,2013-10-29 19:37:00,
2013-10-29 15:39:00,55.8,48.4,30.34,NE,48,12.0,16.0,76,0.00,,,0.00,meteohub,2013-10-29 19:39:00,
2013-10-29 15:41:00,55.8,48.4,30.34,NE,34,10.0,16.0,76,0.00,,,0.00,meteohub,2013-10-29 19:41:00,
2013-10-29 15:42:00,55.9,48.6,30.34,NNE,18,8.0,16.0,76,0.00,,,0.00,meteohub,2013-10-29 19:42:00,
2013-10-29 15:45:00,55.9,48.6,30.34,NNE,15,7.0,16.0,76,0.00,,,0.00,meteohub,2013-10-29 19:45:00,
2013-10-29 15:46:00,55.9,48.6,30.34,NNE,24,12.0,16.0,76,0.00,,,0.00,meteohub,2013-10-29 19:46:00,
2013-10-29 15:47:00,55.8,48.4,30.34,ENE,67,9.0,16.0,76,0.00,,,0.00,meteohub,2013-10-29 19:47:00,
2013-10-29 15:50:00,55.8,48.4,30.34,ENE,67,6.0,16.0,76,0.00,,,0.00,meteohub,2013-10-29 19:50:00,
2013-10-29 15:51:00,55.8,48.4,30.34,NNE,17,12.0,14.0,76,0.00,,,0.00,meteohub,2013-10-29 19:51:00,
2013-10-29 15:52:00,55.8,48.4,30.34,NNE,21,8.0,14.0,76,0.00,,,0.00,meteohub,2013-10-29 19:52:00,
2013-10-29 15:55:00,55.8,48.4,30.33,NE,48,6.0,14.0,76,0.00,,,0.00,meteohub,2013-10-29 19:55:00,
2013-10-29 15:56:00,55.8,48.4,30.33,NNE,32,6.0,14.0,76,0.00,,,0.00,meteohub,2013-10-29 19:56:00,
2013-10-29 15:57:00,55.8,48.4,30.33,NE,36,9.0,14.0,76,0.00,,,0.00,meteohub,2013-10-29 19:57:00,
2013-10-29 15:58:00,55.8,48.0,30.34,NE,51,10.0,14.0,75,0.00,,,0.00,meteohub,2013-10-29 19:58:00,
2013-10-29 16:01:00,55.8,48.4,30.34,ENE,69,14.0,14.0,76,0.00,,,0.00,meteohub,2013-10-29 20:01:00,
2013-10-29 16:02:00,55.8,48.4,30.34,NNE,23,9.0,14.0,76,0.00,,,0.00,meteohub,2013-10-29 20:02:00,
2013-10-29 16:03:00,55.6,48.2,30.33,North,11,5.0,14.0,76,0.00,,,0.00,meteohub,2013-10-29 20:03:00,
2013-10-29 16:06:00,55.6,47.8,30.34,NNE,21,5.0,14.0,75,0.00,,,0.00,meteohub,2013-10-29 20:06:00,
2013-10-29 16:07:00,55.6,47.8,30.34,NNE,31,8.0,14.0,75,0.00,,,0.00,meteohub,2013-10-29 20:07:00,
2013-10-29 16:10:00,55.8,48.4,30.34,ENE,65,6.0,14.0,76,0.00,,,0.00,meteohub,2013-10-29 20:10:00,
2013-10-29 16:11:00,55.8,48.4,30.34,NNE,16,3.0,14.0,76,0.00,,,0.00,meteohub,2013-10-29 20:11:00,
2013-10-29 16:12:00,55.8,48.4,30.34,ENE,75,4.0,14.0,76,0.00,,,0.00,meteohub,2013-10-29 20:12:00,
2013-10-29 16:16:00,55.6,48.2,30.34,NNE,23,8.0,14.0,76,0.00,,,0.00,meteohub,2013-10-29 20:16:00,
2013-10-29 16:17:00,55.6,48.2,30.34,North,355,6.0,14.0,76,0.00,,,0.00,meteohub,2013-10-29 20:17:00,
2013-10-29 16:18:00,55.6,47.8,30.34,NNE,28,12.0,14.0,75,0.00,,,0.00,meteohub,2013-10-29 20:18:00,
2013-10-29 16:20:00,55.4,47.7,30.34,NNE,20,5.0,14.0,75,0.00,,,0.00,meteohub,2013-10-29 20:20:00,
2013-10-29 16:21:00,55.4,48.0,30.34,East,86,8.0,12.0,76,0.00,,,0.00,meteohub,2013-10-29 20:21:00,
2013-10-29 16:22:00,55.2,47.5,30.34,ENE,65,5.0,12.0,75,0.00,,,0.00,meteohub,2013-10-29 20:22:00,
2013-10-29 16:23:00,55.2,47.5,30.34,NNE,25,5.0,12.0,75,0.00,,,0.00,meteohub,2013-10-29 20:23:00,
2013-10-29 16:26:00,55.0,47.7,30.34,NE,46,3.0,12.0,76,0.00,,,0.00,meteohub,2013-10-29 20:26:00,
2013-10-29 16:27:00,55.0,48.0,30.34,NE,34,6.0,12.0,77,0.00,,,0.00,meteohub,2013-10-29 20:27:00,
2013-10-29 16:28:00,55.2,48.2,30.34,NNE,14,8.0,12.0,77,0.00,,,0.00,meteohub,2013-10-29 20:28:00,
2013-10-29 16:31:00,55.2,48.2,30.34,ENE,59,6.0,12.0,77,0.00,,,0.00,meteohub,2013-10-29 20:31:00,
2013-10-29 16:32:00,55.2,48.2,30.34,NE,49,5.0,12.0,77,0.00,,,0.00,meteohub,2013-10-29 20:32:00,
2013-10-29 16:33:00,55.2,48.2,30.34,NNE,26,4.0,12.0,77,0.00,,,0.00,meteohub,2013-10-29 20:33:00,
2013-10-29 16:37:00,55.0,47.7,30.34,ENE,67,9.0,12.0,76,0.00,,,0.00,meteohub,2013-10-29 20:37:00,
2013-10-29 16:38:00,55.0,47.7,30.34,NNE,13,7.0,12.0,76,0.00,,,0.00,meteohub,2013-10-29 20:38:00,
2013-10-29 16:39:00,55.0,47.7,30.34,ENE,60,6.0,12.0,76,0.00,,,0.00,meteohub,2013-10-29 20:39:00,
2013-10-29 16:42:00,55.0,47.7,30.34,NNE,14,10.0,13.0,76,0.00,,,0.00,meteohub,2013-10-29 20:42:00,
2013-10-29 16:43:00,55.0,48.0,30.34,ENE,68,6.0,13.0,77,0.00,,,0.00,meteohub,2013-10-29 20:43:00,
2013-10-29 16:44:00,55.0,47.7,30.34,NE,51,10.0,13.0,76,0.00,,,0.00,meteohub,2013-10-29 20:44:00,
2013-10-29 16:47:00,54.9,47.5,30.34,ENE,77,4.0,13.0,76,0.00,,,0.00,meteohub,2013-10-29 20:47:00,
2013-10-29 16:48:00,54.9,47.8,30.34,NNE,15,5.0,13.0,77,0.00,,,0.00,meteohub,2013-10-29 20:48:00,
2013-10-29 16:50:00,54.9,47.8,30.34,ENE,63,5.0,13.0,77,0.00,,,0.00,meteohub,2013-10-29 20:50:00,
2013-10-29 16:53:00,54.7,47.7,30.34,ENE,64,5.0,13.0,77,0.00,,,0.00,meteohub,2013-10-29 20:53:00,
2013-10-29 16:54:00,54.7,47.7,30.34,NE,46,7.0,13.0,77,0.00,,,0.00,meteohub,2013-10-29 20:54:00,
2013-10-29 16:55:00,54.7,47.7,30.34,ENE,62,4.0,13.0,77,0.00,,,0.00,meteohub,2013-10-29 20:55:00,
2013-10-29 16:58:00,54.5,47.5,30.33,NNE,19,7.0,13.0,77,0.00,,,0.00,meteohub,2013-10-29 20:58:00,
2013-10-29 16:59:00,54.5,47.5,30.33,ENE,69,6.0,13.0,77,0.00,,,0.00,meteohub,2013-10-29 20:59:00,
2013-10-29 17:00:00,54.3,47.3,30.33,ENE,73,5.0,13.0,77,0.00,,,0.00,meteohub,2013-10-29 21:00:00,
2013-10-29 17:02:00,54.3,47.3,30.33,NNE,33,4.0,14.0,77,0.00,,,0.00,meteohub,2013-10-29 21:02:00,
2013-10-29 17:03:00,54.5,47.5,30.33,ENE,70,8.0,14.0,77,0.00,,,0.00,meteohub,2013-10-29 21:03:00,
2013-10-29 17:04:00,54.5,47.5,30.33,East,88,5.0,14.0,77,0.00,,,0.00,meteohub,2013-10-29 21:04:00,
2013-10-29 17:05:00,54.5,47.5,30.33,ENE,57,10.0,14.0,77,0.00,,,0.00,meteohub,2013-10-29 21:05:00,
2013-10-29 17:06:00,54.5,47.8,30.33,NE,44,5.0,14.0,78,0.00,,,0.00,meteohub,2013-10-29 21:06:00,
2013-10-29 17:07:00,54.5,47.8,30.33,East,91,7.0,14.0,78,0.00,,,0.00,meteohub,2013-10-29 21:07:00,
2013-10-29 17:09:00,54.5,47.5,30.33,ENE,57,6.0,14.0,77,0.00,,,0.00,meteohub,2013-10-29 21:09:00,
2013-10-29 17:10:00,54.5,47.5,30.33,NNE,20,5.0,14.0,77,0.00,,,0.00,meteohub,2013-10-29 21:10:00,
2013-10-29 17:11:00,54.5,47.8,30.33,NE,56,2.0,13.0,78,0.00,,,0.00,meteohub,2013-10-29 21:11:00,
2013-10-29 17:12:00,54.5,47.8,30.33,NE,38,1.0,13.0,78,0.00,,,0.00,meteohub,2013-10-29 21:12:00,
2013-10-29 17:15:00,54.3,47.3,30.34,ENE,74,8.0,13.0,77,0.00,,,0.00,meteohub,2013-10-29 21:15:00,
2013-10-29 17:17:00,54.3,47.7,30.34,ENE,57,7.0,13.0,78,0.00,,,0.00,meteohub,2013-10-29 21:17:00,
2013-10-29 17:18:00,54.3,47.7,30.34,ENE,74,7.0,13.0,78,0.00,,,0.00,meteohub,2013-10-29 21:18:00,
2013-10-29 17:20:00,54.3,47.3,30.34,NE,46,6.0,13.0,77,0.00,,,0.00,meteohub,2013-10-29 21:20:00,
2013-10-29 17:23:00,54.1,47.1,30.34,NE,44,7.0,12.0,77,0.00,,,0.00,meteohub,2013-10-29 21:23:00,
2013-10-29 17:24:00,54.1,47.1,30.35,NE,49,5.0,12.0,77,0.00,,,0.00,meteohub,2013-10-29 21:24:00,
2013-10-29 17:25:00,54.1,47.1,30.34,ENE,71,9.0,12.0,77,0.00,,,0.00,meteohub,2013-10-29 21:25:00,
2013-10-29 17:26:00,54.1,47.1,30.35,ENE,61,8.0,12.0,77,0.00,,,0.00,meteohub,2013-10-29 21:26:00,
2013-10-29 17:28:00,54.1,47.1,30.34,NE,46,5.0,12.0,77,0.00,,,0.00,meteohub,2013-10-29 21:28:00,
2013-10-29 17:29:00,54.1,47.1,30.34,NNE,30,4.0,12.0,77,0.00,,,0.00,meteohub,2013-10-29 21:29:00,
2013-10-29 17:30:00,54.1,47.1,30.34,NNE,32,3.0,12.0,77,0.00,,,0.00,meteohub,2013-10-29 21:30:00,
2013-10-29 17:31:00,54.1,47.1,30.34,ENE,58,10.0,12.0,77,0.00,,,0.00,meteohub,2013-10-29 21:31:00,
2013-10-29 17:34:00,54.1,47.1,30.34,NE,49,9.0,12.0,77,0.00,,,0.00,meteohub,2013-10-29 21:34:00,
2013-10-29 17:35:00,54.1,47.1,30.34,NE,40,9.0,12.0,77,0.00,,,0.00,meteohub,2013-10-29 21:35:00,
2013-10-29 17:36:00,54.1,47.1,30.34,NE,49,9.0,13.0,77,0.00,,,0.00,meteohub,2013-10-29 21:36:00,
2013-10-29 17:37:00,54.1,47.1,30.34,NE,56,6.0,13.0,77,0.00,,,0.00,meteohub,2013-10-29 21:37:00,
2013-10-29 17:39:00,54.0,46.9,30.34,NE,40,7.0,13.0,77,0.00,,,0.00,meteohub,2013-10-29 21:39:00,
2013-10-29 17:40:00,54.0,46.9,30.35,ENE,73,7.0,13.0,77,0.00,,,0.00,meteohub,2013-10-29 21:40:00,
2013-10-29 17:41:00,54.0,46.9,30.35,East,88,4.0,13.0,77,0.00,,,0.00,meteohub,2013-10-29 21:41:00,
2013-10-29 17:42:00,54.0,46.6,30.35,ENE,57,5.0,13.0,76,0.00,,,0.00,meteohub,2013-10-29 21:42:00,
2013-10-29 17:45:00,54.0,46.6,30.35,ENE,72,9.0,13.0,76,0.00,,,0.00,meteohub,2013-10-29 21:45:00,
2013-10-29 17:46:00,54.0,46.6,30.35,ENE,59,6.0,13.0,76,0.00,,,0.00,meteohub,2013-10-29 21:46:00,
2013-10-29 17:47:00,54.0,46.6,30.35,NE,53,10.0,13.0,76,0.00,,,0.00,meteohub,2013-10-29 21:47:00,
2013-10-29 17:50:00,54.0,46.6,30.35,NNE,33,4.0,12.0,76,0.00,,,0.00,meteohub,2013-10-29 21:50:00,
2013-10-29 17:51:00,54.0,46.6,30.35,ENE,58,7.0,12.0,76,0.00,,,0.00,meteohub,2013-10-29 21:51:00,
2013-10-29 17:52:00,54.0,46.6,30.34,NE,48,7.0,12.0,76,0.00,,,0.00,meteohub,2013-10-29 21:52:00,
2013-10-29 17:55:00,54.0,46.6,30.34,ENE,60,3.0,11.0,76,0.00,,,0.00,meteohub,2013-10-29 21:55:00,
2013-10-29 17:56:00,54.0,46.6,30.34,East,90,6.0,11.0,76,0.00,,,0.00,meteohub,2013-10-29 21:56:00,
2013-10-29 17:57:00,54.0,46.6,30.34,NE,46,7.0,11.0,76,0.00,,,0.00,meteohub,2013-10-29 21:57:00,
2013-10-29 17:58:00,54.0,46.6,30.34,NE,52,6.0,11.0,76,0.00,,,0.00,meteohub,2013-10-29 21:58:00,
2013-10-29 18:01:00,53.8,46.0,30.34,ENE,73,11.0,11.0,75,0.00,,,0.00,meteohub,2013-10-29 22:01:00,
2013-10-29 18:02:00,54.0,46.6,30.34,ENE,70,2.0,11.0,76,0.00,,,0.00,meteohub,2013-10-29 22:02:00,
2013-10-29 18:03:00,54.0,46.6,30.34,ENE,62,8.0,11.0,76,0.00,,,0.00,meteohub,2013-10-29 22:03:00,
2013-10-29 18:06:00,54.0,46.6,30.34,ENE,73,5.0,11.0,76,0.00,,,0.00,meteohub,2013-10-29 22:06:00,
2013-10-29 18:07:00,53.8,46.4,30.34,East,81,8.0,11.0,76,0.00,,,0.00,meteohub,2013-10-29 22:07:00,
2013-10-29 18:08:00,53.8,46.4,30.34,NE,34,9.0,11.0,76,0.00,,,0.00,meteohub,2013-10-29 22:08:00,
2013-10-29 18:12:00,53.8,46.4,30.34,NNE,28,6.0,12.0,76,0.00,,,0.00,meteohub,2013-10-29 22:12:00,
2013-10-29 18:13:00,53.8,46.4,30.34,NE,53,3.0,12.0,76,0.00,,,0.00,meteohub,2013-10-29 22:13:00,
2013-10-29 18:14:00,53.8,46.4,30.34,NNE,20,5.0,12.0,76,0.00,,,0.00,meteohub,2013-10-29 22:14:00,
2013-10-29 18:17:00,53.8,46.4,30.34,East,82,5.0,12.0,76,0.00,,,0.00,meteohub,2013-10-29 22:17:00,
2013-10-29 18:18:00,54.0,46.6,30.34,NE,52,5.0,12.0,76,0.00,,,0.00,meteohub,2013-10-29 22:18:00,
2013-10-29 18:19:00,54.0,46.6,30.34,ENE,57,5.0,12.0,76,0.00,,,0.00,meteohub,2013-10-29 22:19:00,
2013-10-29 18:22:00,54.0,46.9,30.34,NE,46,10.0,11.0,77,0.00,,,0.00,meteohub,2013-10-29 22:22:00,
2013-10-29 18:23:00,54.1,47.1,30.33,ENE,69,6.0,11.0,77,0.00,,,0.00,meteohub,2013-10-29 22:23:00,
2013-10-29 18:25:00,54.1,46.8,30.33,East,80,8.0,11.0,76,0.00,,,0.00,meteohub,2013-10-29 22:25:00,
2013-10-29 18:27:00,54.0,46.6,30.33,East,81,9.0,11.0,76,0.00,,,0.00,meteohub,2013-10-29 22:27:00,
2013-10-29 18:28:00,54.0,46.6,30.33,ENE,71,8.0,11.0,76,0.00,,,0.00,meteohub,2013-10-29 22:28:00,
2013-10-29 18:29:00,54.1,47.1,30.33,NE,54,6.0,11.0,77,0.00,,,0.00,meteohub,2013-10-29 22:29:00,
2013-10-29 18:30:00,54.1,47.1,30.33,East,87,9.0,13.0,77,0.00,,,0.00,meteohub,2013-10-29 22:30:00,
2013-10-29 18:31:00,54.1,47.1,30.33,ESE,103,11.0,13.0,77,0.00,,,0.00,meteohub,2013-10-29 22:31:00,
2013-10-29 18:33:00,54.1,47.1,30.33,East,81,9.0,13.0,77,0.00,,,0.00,meteohub,2013-10-29 22:33:00,
2013-10-29 18:34:00,54.1,47.1,30.33,East,94,9.0,13.0,77,0.00,,,0.00,meteohub,2013-10-29 22:34:00,
2013-10-29 18:35:00,54.1,47.1,30.33,NE,50,5.0,13.0,77,0.00,,,0.00,meteohub,2013-10-29 22:35:00,
2013-10-29 18:36:00,54.0,46.9,30.33,East,96,10.0,13.0,77,0.00,,,0.00,meteohub,2013-10-29 22:36:00,
2013-10-29 18:38:00,54.1,47.1,30.33,ENE,62,8.0,13.0,77,0.00,,,0.00,meteohub,2013-10-29 22:38:00,
2013-10-29 18:39:00,54.1,47.1,30.33,ENE,61,4.0,13.0,77,0.00,,,0.00,meteohub,2013-10-29 22:39:00,
2013-10-29 18:41:00,54.0,46.9,30.33,East,81,2.0,13.0,77,0.00,,,0.00,meteohub,2013-10-29 22:41:00,
2013-10-29 18:42:00,54.0,46.9,30.33,ENE,58,4.0,13.0,77,0.00,,,0.00,meteohub,2013-10-29 22:42:00,
2013-10-29 18:43:00,54.0,46.9,30.33,East,88,8.0,13.0,77,0.00,,,0.00,meteohub,2013-10-29 22:43:00,
2013-10-29 18:44:00,54.0,46.6,30.33,ENE,63,3.0,13.0,76,0.00,,,0.00,meteohub,2013-10-29 22:44:00,
2013-10-29 18:45:00,54.0,46.9,30.33,ENE,57,5.0,13.0,77,0.00,,,0.00,meteohub,2013-10-29 22:45:00,
2013-10-29 18:47:00,54.0,46.6,30.33,East,84,10.0,13.0,76,0.00,,,0.00,meteohub,2013-10-29 22:47:00,
2013-10-29 18:48:00,54.1,46.8,30.33,East,89,9.0,13.0,76,0.00,,,0.00,meteohub,2013-10-29 22:48:00,
2013-10-29 18:49:00,54.1,46.8,30.33,East,84,9.0,13.0,76,0.00,,,0.00,meteohub,2013-10-29 22:49:00,
2013-10-29 18:51:00,54.1,47.1,30.33,ENE,69,6.0,13.0,77,0.00,,,0.00,meteohub,2013-10-29 22:51:00,
2013-10-29 18:52:00,54.1,47.1,30.33,East,97,7.0,13.0,77,0.00,,,0.00,meteohub,2013-10-29 22:52:00,
2013-10-29 18:53:00,54.1,46.8,30.33,ENE,71,8.0,13.0,76,0.00,,,0.00,meteohub,2013-10-29 22:53:00,
2013-10-29 18:55:00,54.1,46.8,30.33,ENE,58,7.0,13.0,76,0.00,,,0.00,meteohub,2013-10-29 22:55:00,
2013-10-29 18:56:00,54.0,46.2,30.33,ENE,57,5.0,12.0,75,0.00,,,0.00,meteohub,2013-10-29 22:56:00,
2013-10-29 18:57:00,54.0,46.2,30.33,East,92,6.0,12.0,75,0.00,,,0.00,meteohub,2013-10-29 22:57:00,
2013-10-29 18:58:00,54.0,46.2,30.33,ENE,76,8.0,12.0,75,0.00,,,0.00,meteohub,2013-10-29 22:58:00,
2013-10-29 18:59:00,54.0,46.6,30.33,East,80,9.0,12.0,76,0.00,,,0.00,meteohub,2013-10-29 22:59:00,
2013-10-29 19:00:00,54.1,46.8,30.34,ENE,63,9.0,12.0,76,0.00,,,0.00,meteohub,2013-10-29 23:00:00,
2013-10-29 19:03:00,54.1,46.8,30.34,East,94,3.0,11.0,76,0.00,,,0.00,meteohub,2013-10-29 23:03:00,
2013-10-29 19:04:00,54.1,46.8,30.34,NE,47,6.0,11.0,76,0.00,,,0.00,meteohub,2013-10-29 23:04:00,
2013-10-29 19:05:00,54.1,46.8,30.34,East,98,6.0,11.0,76,0.00,,,0.00,meteohub,2013-10-29 23:05:00,
2013-10-29 19:06:00,54.1,46.8,30.34,East,97,9.0,12.0,76,0.00,,,0.00,meteohub,2013-10-29 23:06:00,
2013-10-29 19:08:00,54.1,46.8,30.34,East,91,6.0,12.0,76,0.00,,,0.00,meteohub,2013-10-29 23:08:00,
2013-10-29 19:10:00,54.1,46.4,30.34,ENE,78,12.0,12.0,75,0.00,,,0.00,meteohub,2013-10-29 23:10:00,
2013-10-29 19:11:00,54.1,46.4,30.34,East,84,10.0,12.0,75,0.00,,,0.00,meteohub,2013-10-29 23:11:00,
2013-10-29 19:13:00,54.1,46.4,30.34,ENE,61,3.0,12.0,75,0.00,,,0.00,meteohub,2013-10-29 23:13:00,
2013-10-29 19:15:00,54.1,46.4,30.34,ENE,65,5.0,12.0,75,0.00,,,0.00,meteohub,2013-10-29 23:15:00,
2013-10-29 19:16:00,54.1,46.4,30.34,ENE,62,6.0,12.0,75,0.00,,,0.00,meteohub,2013-10-29 23:16:00,
2013-10-29 19:17:00,54.1,46.4,30.34,ENE,69,6.0,12.0,75,0.00,,,0.00,meteohub,2013-10-29 23:17:00,
2013-10-29 19:18:00,54.1,46.4,30.34,ENE,57,4.0,12.0,75,0.00,,,0.00,meteohub,2013-10-29 23:18:00,
2013-10-29 19:19:00,54.1,46.4,30.34,ENE,77,7.0,12.0,75,0.00,,,0.00,meteohub,2013-10-29 23:19:00,
2013-10-29 19:20:00,54.1,46.4,30.34,ENE,59,3.0,12.0,75,0.00,,,0.00,meteohub,2013-10-29 23:20:00,
2013-10-29 19:21:00,54.1,46.8,30.34,East,82,8.0,12.0,76,0.00,,,0.00,meteohub,2013-10-29 23:21:00,
2013-10-29 19:22:00,54.1,46.8,30.34,ENE,67,9.0,12.0,76,0.00,,,0.00,meteohub,2013-10-29 23:22:00,
2013-10-29 19:24:00,54.1,46.8,30.35,NE,49,6.0,12.0,76,0.00,,,0.00,meteohub,2013-10-29 23:24:00,
2013-10-29 19:25:00,54.1,46.4,30.34,ENE,67,5.0,12.0,75,0.00,,,0.00,meteohub,2013-10-29 23:25:00,
2013-10-29 19:27:00,54.1,46.4,30.34,ENE,75,8.0,12.0,75,0.00,,,0.00,meteohub,2013-10-29 23:27:00,
2013-10-29 19:29:00,54.1,46.4,30.35,ENE,62,8.0,12.0,75,0.00,,,0.00,meteohub,2013-10-29 23:29:00,
2013-10-29 19:30:00,54.1,46.4,30.35,ENE,73,5.0,12.0,75,0.00,,,0.00,meteohub,2013-10-29 23:30:00,
2013-10-29 19:32:00,54.1,46.4,30.35,ESE,107,6.0,11.0,75,0.00,,,0.00,meteohub,2013-10-29 23:32:00,
2013-10-29 19:33:00,54.1,46.4,30.35,NE,50,7.0,11.0,75,0.00,,,0.00,meteohub,2013-10-29 23:33:00,
2013-10-29 19:34:00,54.1,46.8,30.35,East,82,10.0,11.0,76,0.00,,,0.00,meteohub,2013-10-29 23:34:00,
2013-10-29 19:35:00,54.1,46.4,30.35,East,91,8.0,11.0,75,0.00,,,0.00,meteohub,2013-10-29 23:35:00,
2013-10-29 19:36:00,54.1,46.4,30.35,ENE,74,7.0,11.0,75,0.00,,,0.00,meteohub,2013-10-29 23:36:00,
2013-10-29 19:37:00,54.1,46.4,30.35,ENE,74,7.0,11.0,75,0.00,,,0.00,meteohub,2013-10-29 23:37:00,
2013-10-29 19:38:00,54.1,46.4,30.35,ENE,70,4.0,11.0,75,0.00,,,0.00,meteohub,2013-10-29 23:38:00,
2013-10-29 19:39:00,54.1,46.4,30.35,East,80,4.0,11.0,75,0.00,,,0.00,meteohub,2013-10-29 23:39:00,
2013-10-29 19:40:00,54.1,46.4,30.35,NE,53,6.0,11.0,75,0.00,,,0.00,meteohub,2013-10-29 23:40:00,
2013-10-29 19:41:00,54.1,46.4,30.35,NE,55,4.0,11.0,75,0.00,,,0.00,meteohub,2013-10-29 23:41:00,
2013-10-29 19:43:00,54.1,46.0,30.35,ENE,77,3.0,11.0,74,0.00,,,0.00,meteohub,2013-10-29 23:43:00,
2013-10-29 19:44:00,54.1,46.0,30.35,NE,53,7.0,11.0,74,0.00,,,0.00,meteohub,2013-10-29 23:44:00,
2013-10-29 19:45:00,54.1,46.0,30.35,NE,35,5.0,11.0,74,0.00,,,0.00,meteohub,2013-10-29 23:45:00,
2013-10-29 19:46:00,54.1,46.0,30.35,ENE,66,3.0,11.0,74,0.00,,,0.00,meteohub,2013-10-29 23:46:00,
2013-10-29 19:47:00,54.1,46.0,30.35,NE,44,5.0,11.0,74,0.00,,,0.00,meteohub,2013-10-29 23:47:00,
2013-10-29 19:49:00,54.1,46.0,30.35,ENE,74,3.0,11.0,74,0.00,,,0.00,meteohub,2013-10-29 23:49:00,
2013-10-29 19:50:00,54.1,46.4,30.35,ENE,69,5.0,11.0,75,0.00,,,0.00,meteohub,2013-10-29 23:50:00,
2013-10-29 19:51:00,54.1,46.0,30.35,East,89,8.0,11.0,74,0.00,,,0.00,meteohub,2013-10-29 23:51:00,
2013-10-29 19:52:00,54.1,46.0,30.35,East,100,9.0,11.0,74,0.00,,,0.00,meteohub,2013-10-29 23:52:00,
2013-10-29 19:55:00,54.1,45.7,30.35,ENE,74,5.0,11.0,73,0.00,,,0.00,meteohub,2013-10-29 23:55:00,
2013-10-29 19:56:00,54.1,45.7,30.35,ENE,66,5.0,9.0,73,0.00,,,0.00,meteohub,2013-10-29 23:56:00,
2013-10-29 19:57:00,54.1,45.7,30.35,ENE,78,8.0,9.0,73,0.00,,,0.00,meteohub,2013-10-29 23:57:00,
2013-10-29 19:58:00,54.1,45.7,30.35,NE,43,6.0,9.0,73,0.00,,,0.00,meteohub,2013-10-29 23:58:00,
2013-10-29 20:01:00,54.1,45.7,30.35,NE,54,2.0,9.0,73,0.00,,,0.00,meteohub,2013-10-30 00:01:00,
2013-10-29 20:02:00,54.1,45.7,30.35,East,84,5.0,9.0,73,0.00,,,0.00,meteohub,2013-10-30 00:02:00,
2013-10-29 20:03:00,54.1,45.7,30.35,ENE,57,6.0,9.0,73,0.00,,,0.00,meteohub,2013-10-30 00:03:00,
2013-10-29 20:06:00,54.1,45.7,30.35,ENE,70,4.0,10.0,73,0.00,,,0.00,meteohub,2013-10-30 00:06:00,
2013-10-29 20:07:00,54.1,45.7,30.35,ENE,76,0.0,10.0,73,0.00,,,0.00,meteohub,2013-10-30 00:07:00,
2013-10-29 20:08:00,54.1,45.7,30.35,NE,56,4.0,10.0,73,0.00,,,0.00,meteohub,2013-10-30 00:08:00,
2013-10-29 20:11:00,54.1,45.7,30.35,ENE,78,5.0,10.0,73,0.00,,,0.00,meteohub,2013-10-30 00:11:00,
2013-10-29 20:12:00,54.1,45.7,30.35,ENE,73,5.0,10.0,73,0.00,,,0.00,meteohub,2013-10-30 00:12:00,
2013-10-29 20:13:00,54.1,45.7,30.35,NE,49,2.0,10.0,73,0.00,,,0.00,meteohub,2013-10-30 00:13:00,
2013-10-29 20:14:00,54.1,45.7,30.35,ENE,72,4.0,10.0,73,0.00,,,0.00,meteohub,2013-10-30 00:14:00,
2013-10-29 20:15:00,54.1,45.7,30.35,East,82,2.0,10.0,73,0.00,,,0.00,meteohub,2013-10-30 00:15:00,
2013-10-29 20:17:00,54.1,45.7,30.35,East,87,4.0,10.0,73,0.00,,,0.00,meteohub,2013-10-30 00:17:00,
2013-10-29 20:18:00,54.3,46.2,30.35,East,92,6.0,10.0,74,0.00,,,0.00,meteohub,2013-10-30 00:18:00,
2013-10-29 20:19:00,54.1,45.7,30.35,NE,55,4.0,10.0,73,0.00,,,0.00,meteohub,2013-10-30 00:19:00,
2013-10-29 20:20:00,54.1,45.7,30.35,ENE,64,3.0,10.0,73,0.00,,,0.00,meteohub,2013-10-30 00:20:00,
2013-10-29 20:22:00,54.1,45.7,30.35,East,92,8.0,10.0,73,0.00,,,0.00,meteohub,2013-10-30 00:22:00,
2013-10-29 20:23:00,54.1,45.7,30.35,East,101,4.0,10.0,73,0.00,,,0.00,meteohub,2013-10-30 00:23:00,
2013-10-29 20:24:00,54.1,45.7,30.35,ENE,73,4.0,10.0,73,0.00,,,0.00,meteohub,2013-10-30 00:24:00,
2013-10-29 20:25:00,54.1,45.7,30.35,NE,40,2.0,10.0,73,0.00,,,0.00,meteohub,2013-10-30 00:25:00,
2013-10-29 20:26:00,54.1,46.0,30.35,NE,46,2.0,10.0,74,0.00,,,0.00,meteohub,2013-10-30 00:26:00,
2013-10-29 20:27:00,54.1,46.0,30.35,East,87,3.0,10.0,74,0.00,,,0.00,meteohub,2013-10-30 00:27:00,
2013-10-29 20:29:00,54.1,45.7,30.35,ENE,77,3.0,10.0,73,0.00,,,0.00,meteohub,2013-10-30 00:29:00,
2013-10-29 20:30:00,54.1,46.0,30.35,ENE,64,6.0,10.0,74,0.00,,,0.00,meteohub,2013-10-30 00:30:00,
2013-10-29 20:32:00,54.1,46.0,30.35,ENE,67,5.0,9.0,74,0.00,,,0.00,meteohub,2013-10-30 00:32:00,
2013-10-29 20:34:00,54.1,45.7,30.35,ENE,73,4.0,9.0,73,0.00,,,0.00,meteohub,2013-10-30 00:34:00,
2013-10-29 20:35:00,54.1,46.0,30.35,ENE,70,8.0,9.0,74,0.00,,,0.00,meteohub,2013-10-30 00:35:00,
2013-10-29 20:36:00,54.1,46.0,30.35,ENE,69,5.0,9.0,74,0.00,,,0.00,meteohub,2013-10-30 00:36:00,
2013-10-29 20:37:00,54.1,46.0,30.35,East,94,7.0,9.0,74,0.00,,,0.00,meteohub,2013-10-30 00:37:00,
2013-10-29 20:38:00,54.1,46.0,30.35,East,90,7.0,9.0,74,0.00,,,0.00,meteohub,2013-10-30 00:38:00,
2013-10-29 20:40:00,54.1,46.0,30.35,East,91,3.0,9.0,74,0.00,,,0.00,meteohub,2013-10-30 00:40:00,
2013-10-29 20:41:00,54.1,46.0,30.35,East,80,5.0,9.0,74,0.00,,,0.00,meteohub,2013-10-30 00:41:00,
2013-10-29 20:43:00,54.1,46.0,30.35,NE,47,5.0,9.0,74,0.00,,,0.00,meteohub,2013-10-30 00:43:00,
2013-10-29 20:44:00,54.1,46.0,30.35,ENE,74,5.0,9.0,74,0.00,,,0.00,meteohub,2013-10-30 00:44:00,
2013-10-29 20:45:00,54.1,46.0,30.35,ENE,67,6.0,9.0,74,0.00,,,0.00,meteohub,2013-10-30 00:45:00,
2013-10-29 20:46:00,54.1,45.7,30.35,ENE,72,4.0,9.0,73,0.00,,,0.00,meteohub,2013-10-30 00:46:00,
2013-10-29 20:48:00,54.1,46.0,30.35,East,94,7.0,9.0,74,0.00,,,0.00,meteohub,2013-10-30 00:48:00,
2013-10-29 20:49:00,54.1,46.0,30.35,ENE,72,4.0,9.0,74,0.00,,,0.00,meteohub,2013-10-30 00:49:00,
2013-10-29 20:50:00,54.3,45.9,30.35,East,86,4.0,9.0,73,0.00,,,0.00,meteohub,2013-10-30 00:50:00,
2013-10-29 20:53:00,54.1,45.7,30.35,ENE,75,5.0,9.0,73,0.00,,,0.00,meteohub,2013-10-30 00:53:00,
2013-10-29 20:55:00,54.3,46.2,30.35,ENE,61,4.0,9.0,74,0.00,,,0.00,meteohub,2013-10-30 00:55:00,
2013-10-29 20:56:00,54.3,46.2,30.35,NE,49,3.0,10.0,74,0.00,,,0.00,meteohub,2013-10-30 00:56:00,
2013-10-29 20:58:00,54.3,46.2,30.35,East,92,6.0,10.0,74,0.00,,,0.00,meteohub,2013-10-30 00:58:00,
2013-10-29 20:59:00,54.3,46.2,30.35,East,88,4.0,10.0,74,0.00,,,0.00,meteohub,2013-10-30 00:59:00,
2013-10-29 21:00:00,54.3,46.2,30.35,East,90,4.0,10.0,74,0.00,,,0.00,meteohub,2013-10-30 01:00:00,
2013-10-29 21:01:00,54.3,46.2,30.35,ENE,75,7.0,10.0,74,0.00,,,0.00,meteohub,2013-10-30 01:01:00,
2013-10-29 21:04:00,54.3,46.2,30.35,East,85,7.0,10.0,74,0.00,,,0.00,meteohub,2013-10-30 01:04:00,
2013-10-29 21:06:00,54.3,46.2,30.34,ENE,67,4.0,10.0,74,0.00,,,0.00,meteohub,2013-10-30 01:06:00,
2013-10-29 21:07:00,54.3,46.6,30.34,East,82,7.0,10.0,75,0.00,,,0.00,meteohub,2013-10-30 01:07:00,
2013-10-29 21:09:00,54.3,46.6,30.34,NNE,31,5.0,10.0,75,0.00,,,0.00,meteohub,2013-10-30 01:09:00,
2013-10-29 21:10:00,54.3,46.6,30.34,East,87,4.0,10.0,75,0.00,,,0.00,meteohub,2013-10-30 01:10:00,
2013-10-29 21:11:00,54.3,46.6,30.34,NE,42,6.0,10.0,75,0.00,,,0.00,meteohub,2013-10-30 01:11:00,
2013-10-29 21:12:00,54.3,46.6,30.34,ENE,65,6.0,10.0,75,0.00,,,0.00,meteohub,2013-10-30 01:12:00,
2013-10-29 21:14:00,54.3,46.6,30.34,ENE,59,4.0,10.0,75,0.00,,,0.00,meteohub,2013-10-30 01:14:00,
2013-10-29 21:15:00,54.3,46.6,30.34,East,86,5.0,10.0,75,0.00,,,0.00,meteohub,2013-10-30 01:15:00,
2013-10-29 21:16:00,54.3,46.6,30.34,ENE,78,5.0,10.0,75,0.00,,,0.00,meteohub,2013-10-30 01:16:00,
2013-10-29 21:18:00,54.3,46.6,30.34,ESE,109,6.0,10.0,75,0.00,,,0.00,meteohub,2013-10-30 01:18:00,
2013-10-29 21:19:00,54.3,46.6,30.34,ESE,109,8.0,10.0,75,0.00,,,0.00,meteohub,2013-10-30 01:19:00,
2013-10-29 21:20:00,54.3,46.9,30.34,East,81,8.0,10.0,76,0.00,,,0.00,meteohub,2013-10-30 01:20:00,
2013-10-29 21:21:00,54.3,46.9,30.34,ENE,78,4.0,10.0,76,0.00,,,0.00,meteohub,2013-10-30 01:21:00,
2013-10-29 21:22:00,54.3,46.6,30.34,NE,42,4.0,10.0,75,0.00,,,0.00,meteohub,2013-10-30 01:22:00,
2013-10-29 21:24:00,54.3,46.9,30.34,East,92,9.0,10.0,76,0.00,,,0.00,meteohub,2013-10-30 01:24:00,
2013-10-29 21:26:00,54.3,46.9,30.33,East,81,10.0,10.0,76,0.00,,,0.00,meteohub,2013-10-30 01:26:00,
2013-10-29 21:27:00,54.3,46.9,30.34,ENE,59,6.0,10.0,76,0.00,,,0.00,meteohub,2013-10-30 01:27:00,
2013-10-29 21:29:00,54.1,46.4,30.34,ENE,76,3.0,10.0,75,0.00,,,0.00,meteohub,2013-10-30 01:29:00,
2013-10-29 21:30:00,54.3,46.6,30.34,East,82,7.0,10.0,75,0.00,,,0.00,meteohub,2013-10-30 01:30:00,
2013-10-29 21:31:00,54.1,46.4,30.34,ENE,77,8.0,11.0,75,0.00,,,0.00,meteohub,2013-10-30 01:31:00,
2013-10-29 21:33:00,54.1,46.4,30.34,NNE,21,5.0,11.0,75,0.00,,,0.00,meteohub,2013-10-30 01:33:00,
2013-10-29 21:35:00,54.3,46.9,30.34,East,91,6.0,11.0,76,0.00,,,0.00,meteohub,2013-10-30 01:35:00,
2013-10-29 21:36:00,54.3,46.6,30.33,ESE,107,8.0,11.0,75,0.00,,,0.00,meteohub,2013-10-30 01:36:00,
2013-10-29 21:37:00,54.3,46.9,30.34,ENE,71,4.0,11.0,76,0.00,,,0.00,meteohub,2013-10-30 01:37:00,
2013-10-29 21:38:00,54.3,46.9,30.34,East,84,5.0,11.0,76,0.00,,,0.00,meteohub,2013-10-30 01:38:00,
2013-10-29 21:40:00,54.3,46.6,30.34,ENE,67,5.0,11.0,75,0.00,,,0.00,meteohub,2013-10-30 01:40:00,
2013-10-29 21:41:00,54.3,46.6,30.34,East,88,5.0,11.0,75,0.00,,,0.00,meteohub,2013-10-30 01:41:00,
2013-10-29 21:42:00,54.3,46.6,30.34,ENE,75,2.0,11.0,75,0.00,,,0.00,meteohub,2013-10-30 01:42:00,
2013-10-29 21:43:00,54.3,46.9,30.34,ENE,61,6.0,11.0,76,0.00,,,0.00,meteohub,2013-10-30 01:43:00,
2013-10-29 21:45:00,54.5,47.1,30.34,ENE,68,5.0,11.0,76,0.00,,,0.00,meteohub,2013-10-30 01:45:00,
2013-10-29 21:46:00,54.5,47.1,30.34,ENE,65,5.0,9.0,76,0.00,,,0.00,meteohub,2013-10-30 01:46:00,
2013-10-29 21:48:00,54.5,47.1,30.34,East,81,2.0,9.0,76,0.00,,,0.00,meteohub,2013-10-30 01:48:00,
2013-10-29 21:49:00,54.5,47.1,30.34,ESE,102,9.0,9.0,76,0.00,,,0.00,meteohub,2013-10-30 01:49:00,
2013-10-29 21:50:00,54.5,47.1,30.34,ENE,71,5.0,10.0,76,0.00,,,0.00,meteohub,2013-10-30 01:50:00,
2013-10-29 21:53:00,54.5,47.5,30.34,ESE,103,8.0,10.0,77,0.00,,,0.00,meteohub,2013-10-30 01:53:00,
2013-10-29 21:54:00,54.5,47.1,30.34,ENE,71,4.0,10.0,76,0.00,,,0.00,meteohub,2013-10-30 01:54:00,
2013-10-29 21:55:00,54.5,47.1,30.34,ENE,78,5.0,11.0,76,0.00,,,0.00,meteohub,2013-10-30 01:55:00,
2013-10-29 21:56:00,54.5,47.5,30.35,East,84,7.0,11.0,77,0.00,,,0.00,meteohub,2013-10-30 01:56:00,
2013-10-29 21:59:00,54.5,47.5,30.35,ENE,61,5.0,11.0,77,0.00,,,0.00,meteohub,2013-10-30 01:59:00,
2013-10-29 22:00:00,54.5,47.5,30.35,ENE,67,3.0,11.0,77,0.00,,,0.00,meteohub,2013-10-30 02:00:00,
2013-10-29 22:01:00,54.7,47.7,30.35,ENE,70,5.0,11.0,77,0.00,,,0.00,meteohub,2013-10-30 02:01:00,
2013-10-29 22:04:00,54.5,47.5,30.35,East,94,6.0,11.0,77,0.00,,,0.00,meteohub,2013-10-30 02:04:00,
2013-10-29 22:05:00,54.5,47.5,30.35,ESE,109,6.0,11.0,77,0.00,,,0.00,meteohub,2013-10-30 02:05:00,
2013-10-29 22:06:00,54.5,47.5,30.35,East,95,6.0,11.0,77,0.00,,,0.00,meteohub,2013-10-30 02:06:00,
2013-10-29 22:07:00,54.5,47.1,30.35,East,96,3.0,11.0,76,0.00,,,0.00,meteohub,2013-10-30 02:07:00,
2013-10-29 22:10:00,54.3,46.9,30.35,ESE,107,8.0,9.0,76,0.00,,,0.00,meteohub,2013-10-30 02:10:00,
2013-10-29 22:11:00,54.3,46.6,30.35,ESE,107,7.0,9.0,75,0.00,,,0.00,meteohub,2013-10-30 02:11:00,
2013-10-29 22:12:00,54.3,46.6,30.35,East,94,6.0,9.0,75,0.00,,,0.00,meteohub,2013-10-30 02:12:00,
2013-10-29 22:15:00,54.5,46.8,30.35,ENE,75,2.0,9.0,75,0.00,,,0.00,meteohub,2013-10-30 02:15:00,
2013-10-29 22:16:00,54.5,47.1,30.34,East,101,2.0,9.0,76,0.00,,,0.00,meteohub,2013-10-30 02:16:00,
2013-10-29 22:17:00,54.5,47.1,30.34,NE,49,5.0,9.0,76,0.00,,,0.00,meteohub,2013-10-30 02:17:00,
2013-10-29 22:21:00,54.7,47.3,30.35,ENE,66,4.0,9.0,76,0.00,,,0.00,meteohub,2013-10-30 02:21:00,
2013-10-29 22:22:00,54.7,47.3,30.35,ENE,76,7.0,9.0,76,0.00,,,0.00,meteohub,2013-10-30 02:22:00,
2013-10-29 22:23:00,54.7,46.9,30.35,East,98,4.0,9.0,75,0.00,,,0.00,meteohub,2013-10-30 02:23:00,
2013-10-29 22:24:00,54.7,47.3,30.35,ESE,107,4.0,9.0,76,0.00,,,0.00,meteohub,2013-10-30 02:24:00,
2013-10-29 22:26:00,54.7,47.3,30.35,East,92,3.0,9.0,76,0.00,,,0.00,meteohub,2013-10-30 02:26:00,
2013-10-29 22:27:00,54.7,47.3,30.35,East,80,4.0,9.0,76,0.00,,,0.00,meteohub,2013-10-30 02:27:00,
2013-10-29 22:28:00,54.7,47.3,30.35,ENE,74,3.0,9.0,76,0.00,,,0.00,meteohub,2013-10-30 02:28:00,
2013-10-29 22:29:00,54.7,47.3,30.35,East,83,7.0,9.0,76,0.00,,,0.00,meteohub,2013-10-30 02:29:00,
2013-10-29 22:32:00,54.7,47.3,30.35,East,95,8.0,9.0,76,0.00,,,0.00,meteohub,2013-10-30 02:32:00,
2013-10-29 22:33:00,54.7,47.3,30.35,East,88,5.0,9.0,76,0.00,,,0.00,meteohub,2013-10-30 02:33:00,
2013-10-29 22:35:00,54.7,47.3,30.35,ENE,74,3.0,9.0,76,0.00,,,0.00,meteohub,2013-10-30 02:35:00,
2013-10-29 22:37:00,54.7,47.3,30.35,East,80,7.0,9.0,76,0.00,,,0.00,meteohub,2013-10-30 02:37:00,
2013-10-29 22:38:00,54.7,47.3,30.35,East,101,6.0,9.0,76,0.00,,,0.00,meteohub,2013-10-30 02:38:00,
2013-10-29 22:41:00,54.7,47.3,30.35,ESE,103,4.0,9.0,76,0.00,,,0.00,meteohub,2013-10-30 02:41:00,
2013-10-29 22:42:00,54.7,47.3,30.35,ENE,62,6.0,9.0,76,0.00,,,0.00,meteohub,2013-10-30 02:42:00,
2013-10-29 22:43:00,54.7,47.3,30.35,East,86,7.0,9.0,76,0.00,,,0.00,meteohub,2013-10-30 02:43:00,
2013-10-29 22:44:00,54.7,47.3,30.35,ENE,63,4.0,9.0,76,0.00,,,0.00,meteohub,2013-10-30 02:44:00,
2013-10-29 22:47:00,54.7,47.3,30.35,NE,37,4.0,10.0,76,0.00,,,0.00,meteohub,2013-10-30 02:47:00,
2013-10-29 22:48:00,54.7,47.3,30.35,ESE,121,3.0,10.0,76,0.00,,,0.00,meteohub,2013-10-30 02:48:00,
2013-10-29 22:49:00,54.5,47.1,30.35,East,92,6.0,10.0,76,0.00,,,0.00,meteohub,2013-10-30 02:49:00,
2013-10-29 22:53:00,54.7,47.3,30.35,ENE,76,3.0,10.0,76,0.00,,,0.00,meteohub,2013-10-30 02:53:00,
2013-10-29 22:54:00,54.7,47.3,30.35,ENE,78,4.0,10.0,76,0.00,,,0.00,meteohub,2013-10-30 02:54:00,
2013-10-29 22:55:00,54.7,47.3,30.35,ENE,72,5.0,10.0,76,0.00,,,0.00,meteohub,2013-10-30 02:55:00,
2013-10-29 22:56:00,54.5,46.8,30.35,East,91,4.0,10.0,75,0.00,,,0.00,meteohub,2013-10-30 02:56:00,
2013-10-29 22:58:00,54.7,46.9,30.35,East,92,3.0,10.0,75,0.00,,,0.00,meteohub,2013-10-30 02:58:00,
2013-10-29 22:59:00,54.7,47.3,30.35,ENE,61,4.0,10.0,76,0.00,,,0.00,meteohub,2013-10-30 02:59:00,
2013-10-29 23:00:00,54.7,47.3,30.35,East,92,3.0,10.0,76,0.00,,,0.00,meteohub,2013-10-30 03:00:00,
2013-10-29 23:03:00,54.7,47.3,30.35,ENE,72,3.0,8.0,76,0.00,,,0.00,meteohub,2013-10-30 03:03:00,
2013-10-29 23:04:00,54.7,47.3,30.35,ENE,72,5.0,8.0,76,0.00,,,0.00,meteohub,2013-10-30 03:04:00,
2013-10-29 23:05:00,54.7,47.3,30.35,ENE,66,4.0,8.0,76,0.00,,,0.00,meteohub,2013-10-30 03:05:00,
2013-10-29 23:06:00,54.7,47.3,30.35,East,83,5.0,8.0,76,0.00,,,0.00,meteohub,2013-10-30 03:06:00,
2013-10-29 23:09:00,54.7,46.9,30.34,ENE,69,3.0,8.0,75,0.00,,,0.00,meteohub,2013-10-30 03:09:00,
2013-10-29 23:10:00,54.7,47.3,30.34,East,92,3.0,8.0,76,0.00,,,0.00,meteohub,2013-10-30 03:10:00,
2013-10-29 23:11:00,54.7,47.3,30.34,ENE,78,4.0,8.0,76,0.00,,,0.00,meteohub,2013-10-30 03:11:00,
2013-10-29 23:12:00,54.7,47.3,30.34,East,98,3.0,8.0,76,0.00,,,0.00,meteohub,2013-10-30 03:12:00,
2013-10-29 23:14:00,54.7,47.3,30.34,ESE,105,4.0,8.0,76,0.00,,,0.00,meteohub,2013-10-30 03:14:00,
2013-10-29 23:15:00,54.7,47.3,30.34,East,81,3.0,8.0,76,0.00,,,0.00,meteohub,2013-10-30 03:15:00,
2013-10-29 23:16:00,54.7,47.3,30.34,East,96,4.0,8.0,76,0.00,,,0.00,meteohub,2013-10-30 03:16:00,
2013-10-29 23:17:00,54.7,47.3,30.35,East,82,7.0,8.0,76,0.00,,,0.00,meteohub,2013-10-30 03:17:00,
2013-10-29 23:18:00,54.7,47.3,30.34,East,98,4.0,8.0,76,0.00,,,0.00,meteohub,2013-10-30 03:18:00,
2013-10-29 23:19:00,54.7,47.3,30.34,East,101,4.0,8.0,76,0.00,,,0.00,meteohub,2013-10-30 03:19:00,
2013-10-29 23:20:00,54.7,47.3,30.34,NE,53,2.0,8.0,76,0.00,,,0.00,meteohub,2013-10-30 03:20:00,
2013-10-29 23:21:00,54.7,47.3,30.34,ENE,61,1.0,9.0,76,0.00,,,0.00,meteohub,2013-10-30 03:21:00,
2013-10-29 23:22:00,54.7,47.3,30.34,East,83,1.0,9.0,76,0.00,,,0.00,meteohub,2013-10-30 03:22:00,
2013-10-29 23:23:00,54.7,47.3,30.34,East,86,3.0,9.0,76,0.00,,,0.00,meteohub,2013-10-30 03:23:00,
2013-10-29 23:25:00,54.7,47.3,30.34,East,92,3.0,9.0,76,0.00,,,0.00,meteohub,2013-10-30 03:25:00,
2013-10-29 23:27:00,54.7,47.7,30.34,ESE,109,4.0,9.0,77,0.00,,,0.00,meteohub,2013-10-30 03:27:00,
2013-10-29 23:28:00,54.9,47.8,30.34,ENE,72,5.0,9.0,77,0.00,,,0.00,meteohub,2013-10-30 03:28:00,
2013-10-29 23:30:00,54.9,47.8,30.34,ESE,105,4.0,9.0,77,0.00,,,0.00,meteohub,2013-10-30 03:30:00,
2013-10-29 23:33:00,54.7,47.7,30.34,East,92,4.0,9.0,77,0.00,,,0.00,meteohub,2013-10-30 03:33:00,
2013-10-29 23:34:00,54.7,47.7,30.34,East,93,3.0,9.0,77,0.00,,,0.00,meteohub,2013-10-30 03:34:00,
2013-10-29 23:35:00,54.7,47.3,30.34,East,90,1.0,9.0,76,0.00,,,0.00,meteohub,2013-10-30 03:35:00,
2013-10-29 23:36:00,54.7,47.3,30.34,East,82,2.0,9.0,76,0.00,,,0.00,meteohub,2013-10-30 03:36:00,
2013-10-29 23:38:00,54.7,47.3,30.34,East,98,3.0,9.0,76,0.00,,,0.00,meteohub,2013-10-30 03:38:00,
2013-10-29 23:39:00,54.7,47.3,30.34,ESE,103,4.0,9.0,76,0.00,,,0.00,meteohub,2013-10-30 03:39:00,
2013-10-29 23:40:00,54.7,47.3,30.33,ENE,69,5.0,9.0,76,0.00,,,0.00,meteohub,2013-10-30 03:40:00,
2013-10-29 23:41:00,54.7,47.7,30.33,ESE,119,5.0,9.0,77,0.00,,,0.00,meteohub,2013-10-30 03:41:00,
2013-10-29 23:43:00,54.7,47.7,30.33,East,97,4.0,9.0,77,0.00,,,0.00,meteohub,2013-10-30 03:43:00,
2013-10-29 23:44:00,54.7,47.7,30.33,East,101,7.0,9.0,77,0.00,,,0.00,meteohub,2013-10-30 03:44:00,
2013-10-29 23:45:00,54.7,47.7,30.33,SE,142,4.0,8.0,77,0.00,,,0.00,meteohub,2013-10-30 03:45:00,
2013-10-29 23:46:00,54.9,47.8,30.33,ENE,70,2.0,8.0,77,0.00,,,0.00,meteohub,2013-10-30 03:46:00,
2013-10-29 23:47:00,54.7,47.7,30.33,ENE,78,5.0,8.0,77,0.00,,,0.00,meteohub,2013-10-30 03:47:00,
2013-10-29 23:48:00,54.7,47.3,30.33,ENE,61,4.0,8.0,76,0.00,,,0.00,meteohub,2013-10-30 03:48:00,
2013-10-29 23:49:00,54.7,47.3,30.33,East,86,4.0,8.0,76,0.00,,,0.00,meteohub,2013-10-30 03:49:00,
2013-10-29 23:50:00,54.7,47.7,30.33,ENE,69,5.0,8.0,77,0.00,,,0.00,meteohub,2013-10-30 03:50:00,
2013-10-29 23:51:00,54.9,47.8,30.33,ENE,73,3.0,8.0,77,0.00,,,0.00,meteohub,2013-10-30 03:51:00,
2013-10-29 23:52:00,54.9,47.8,30.33,SE,126,5.0,8.0,77,0.00,,,0.00,meteohub,2013-10-30 03:52:00,
2013-10-29 23:54:00,54.9,47.8,30.33,East,80,3.0,8.0,77,0.00,,,0.00,meteohub,2013-10-30 03:54:00,
2013-10-29 23:55:00,54.9,47.8,30.33,NE,50,6.0,8.0,77,0.00,,,0.00,meteohub,2013-10-30 03:55:00,
2013-10-29 23:56:00,54.9,47.8,30.33,NE,36,5.0,8.0,77,0.00,,,0.00,meteohub,2013-10-30 03:56:00,
2013-10-29 23:57:00,54.9,47.8,30.33,SE,134,3.0,8.0,77,0.00,,,0.00,meteohub,2013-10-30 03:57:00,
2013-10-29 23:59:00,54.9,47.8,30.33,East,100,2.0,8.0,77,0.00,,,0.00,meteohub,2013-10-30 03:59:00,